Time,TemperatureF,DewpointF,PressureIn,WindDirection,WindDirectionDegrees,WindSpeedMPH,WindSpeedGustMPH,Humidity,HourlyPrecipIn,Conditions,Clouds,dailyrainin,SoftwareType,DateUTC
2013-01-29 00:00:00,70.5,36.8,28.65,SSE,153,0.0,0.0,29,0.00,,,0.00,VWS V14.00,2013-01-29 06:00:00,
2013-01-29 00:02:00,70.7,36.0,28.65,South,173,0.0,0.0,28,0.00,,,0.00,VWS V14.00,2013-01-29 06:02:00,
2013-01-29 00:04:00,70.9,36.2,28.65,SSE,151,0.0,0.0,28,0.00,,,0.00,VWS V14.00,2013-01-29 06:04:00,
2013-01-29 00:05:00,70.9,36.2,28.65,SSE,155,0.0,0.0,28,0.00,,,0.00,VWS V14.00,2013-01-29 06:05:00,
2013-01-29 00:06:00,71.1,35.4,28.65,South,183,0.0,0.0,27,0.00,,,0.00,VWS V14.00,2013-01-29 06:06:00,
2013-01-29 00:10:00,70.9,36.2,28.65,South,171,0.0,0.0,28,0.00,,,0.00,VWS V14.00,2013-01-29 06:10:00,
2013-01-29 00:12:00,70.9,36.2,28.65,SSE,162,0.0,0.0,28,0.00,,,0.00,VWS V14.00,2013-01-29 06:12:00,
2013-01-29 00:15:00,70.7,36.0,28.65,South,180,0.0,0.0,28,0.00,,,0.00,VWS V14.00,2013-01-29 06:15:00,
2013-01-29 00:16:00,70.7,36.0,28.65,SSE,168,0.0,0.0,28,0.00,,,0.00,VWS V14.00,2013-01-29 06:16:00,
2013-01-29 00:17:00,70.7,36.0,28.62,SSW,193,0.0,0.0,28,0.00,,,0.00,VWS V14.00,2013-01-29 06:17:00,
2013-01-29 00:18:00,70.7,36.0,28.62,South,185,0.0,0.0,28,0.00,,,0.00,VWS V14.00,2013-01-29 06:18:00,
2013-01-29 00:21:00,70.7,36.0,28.62,SSW,211,0.0,0.0,28,0.00,,,0.00,VWS V14.00,2013-01-29 06:21:00,
2013-01-29 00:22:00,70.9,36.2,28.62,South,179,0.0,0.0,28,0.00,,,0.00,VWS V14.00,2013-01-29 06:22:00,
2013-01-29 00:24:00,70.9,36.2,28.62,South,189,0.0,0.0,28,0.00,,,0.00,VWS V14.00,2013-01-29 06:24:00,
2013-01-29 00:26:00,70.7,36.0,28.62,SSE,163,0.0,0.0,28,0.00,,,0.00,VWS V14.00,2013-01-29 06:26:00,
2013-01-29 00:27:00,70.7,36.0,28.62,South,189,0.0,0.0,28,0.00,,,0.00,VWS V14.00,2013-01-29 06:27:00,
2013-01-29 00:30:00,70.7,36.0,28.62,SSW,206,0.0,0.0,28,0.00,,,0.00,VWS V14.00,2013-01-29 06:30:00,
2013-01-29 00:31:00,70.7,36.0,28.62,South,178,0.0,0.0,28,0.00,,,0.00,VWS V14.00,2013-01-29 06:31:00,
2013-01-29 00:32:00,70.7,36.0,28.62,South,172,0.0,0.0,28,0.00,,,0.00,VWS V14.00,2013-01-29 06:32:00,
2013-01-29 00:35:00,70.5,35.9,28.62,South,172,0.0,0.0,28,0.00,,,0.00,VWS V14.00,2013-01-29 06:35:00,
2013-01-29 00:36:00,70.5,35.9,28.62,South,187,0.0,0.0,28,0.00,,,0.00,VWS V14.00,2013-01-29 06:36:00,
2013-01-29 00:37:00,70.3,35.7,28.62,SSE,164,0.0,0.0,28,0.00,,,0.00,VWS V14.00,2013-01-29 06:37:00,
2013-01-29 00:38:00,70.5,35.9,28.62,SSE,167,0.0,0.0,28,0.00,,,0.00,VWS V14.00,2013-01-29 06:38:00,
2013-01-29 00:40:00,70.5,35.9,28.62,South,172,0.0,0.0,28,0.00,,,0.00,VWS V14.00,2013-01-29 06:40:00,
2013-01-29 00:41:00,70.7,36.0,28.62,South,171,0.0,0.0,28,0.00,,,0.00,VWS V14.00,2013-01-29 06:41:00,
2013-01-29 00:44:00,70.7,35.1,28.62,South,186,0.0,0.0,27,0.00,,,0.00,VWS V14.00,2013-01-29 06:44:00,
2013-01-29 00:47:00,70.7,35.1,28.62,SSE,165,0.0,0.0,27,0.00,,,0.00,VWS V14.00,2013-01-29 06:47:00,
2013-01-29 00:49:00,70.7,35.1,28.62,South,188,0.0,0.0,27,0.00,,,0.00,VWS V14.00,2013-01-29 06:49:00,
2013-01-29 00:52:00,70.5,35.9,28.62,SSE,147,0.0,0.0,28,0.00,,,0.00,VWS V14.00,2013-01-29 06:52:00,
2013-01-29 00:54:00,70.5,35.0,28.62,South,187,0.0,0.0,27,0.00,,,0.00,VWS V14.00,2013-01-29 06:54:00,
2013-01-29 00:55:00,70.5,35.0,28.62,SSE,166,0.0,0.0,27,0.00,,,0.00,VWS V14.00,2013-01-29 06:55:00,
2013-01-29 00:58:00,70.3,35.7,28.62,SW,215,0.0,0.0,28,0.00,,,0.00,VWS V14.00,2013-01-29 06:58:00,
2013-01-29 00:59:00,70.5,35.9,28.62,South,182,0.0,0.0,28,0.00,,,0.00,VWS V14.00,2013-01-29 06:59:00,
2013-01-29 01:00:00,70.5,35.9,28.62,South,186,0.0,0.0,28,0.00,,,0.00,VWS V14.00,2013-01-29 07:00:00,
2013-01-29 01:04:00,70.3,35.7,28.59,South,178,0.0,0.0,28,0.00,,,0.00,VWS V14.00,2013-01-29 07:04:00,
2013-01-29 01:05:00,70.5,35.9,28.59,SSE,164,0.0,0.0,28,0.00,,,0.00,VWS V14.00,2013-01-29 07:05:00,
2013-01-29 01:08:00,70.3,35.7,28.59,South,190,0.0,0.0,28,0.00,,,0.00,VWS V14.00,2013-01-29 07:08:00,
2013-01-29 01:09:00,70.3,35.7,28.59,South,184,0.0,0.0,28,0.00,,,0.00,VWS V14.00,2013-01-29 07:09:00,
2013-01-29 01:11:00,70.3,35.7,28.59,South,191,0.0,0.0,28,0.00,,,0.00,VWS V14.00,2013-01-29 07:11:00,
2013-01-29 01:15:00,70.3,35.7,28.59,South,169,0.0,0.0,28,0.00,,,0.00,VWS V14.00,2013-01-29 07:15:00,
2013-01-29 01:16:00,70.3,35.7,28.59,South,181,0.0,0.0,28,0.00,,,0.00,VWS V14.00,2013-01-29 07:16:00,
2013-01-29 01:17:00,70.3,35.7,28.59,SSE,164,0.0,0.0,28,0.00,,,0.00,VWS V14.00,2013-01-29 07:17:00,
2013-01-29 01:20:00,70.2,35.6,28.59,South,178,0.0,0.0,28,0.00,,,0.00,VWS V14.00,2013-01-29 07:20:00,
2013-01-29 01:22:00,70.2,35.6,28.59,SW,226,0.0,0.0,28,0.00,,,0.00,VWS V14.00,2013-01-29 07:22:00,
2013-01-29 01:25:00,70.2,35.6,28.59,SSE,147,0.0,0.0,28,0.00,,,0.00,VWS V14.00,2013-01-29 07:25:00,
2013-01-29 01:26:00,70.3,35.7,28.59,South,169,0.0,0.0,28,0.00,,,0.00,VWS V14.00,2013-01-29 07:26:00,
2013-01-29 01:27:00,70.3,35.7,28.59,SSE,155,0.0,0.0,28,0.00,,,0.00,VWS V14.00,2013-01-29 07:27:00,
2013-01-29 01:28:00,70.3,35.7,28.59,South,179,0.0,0.0,28,0.00,,,0.00,VWS V14.00,2013-01-29 07:28:00,
2013-01-29 01:31:00,70.5,35.9,28.59,SSE,159,0.0,0.0,28,0.00,,,0.00,VWS V14.00,2013-01-29 07:31:00,
2013-01-29 01:33:00,70.3,35.7,28.59,South,189,0.0,0.0,28,0.00,,,0.00,VWS V14.00,2013-01-29 07:33:00,
2013-01-29 01:37:00,70.5,35.0,28.59,South,180,0.0,0.0,27,0.00,,,0.00,VWS V14.00,2013-01-29 07:37:00,
2013-01-29 01:38:00,70.3,34.8,28.59,SSW,197,0.0,0.0,27,0.00,,,0.00,VWS V14.00,2013-01-29 07:38:00,
2013-01-29 01:40:00,70.2,35.6,28.59,SSE,168,0.0,0.0,28,0.00,,,0.00,VWS V14.00,2013-01-29 07:40:00,
2013-01-29 01:42:00,70.3,35.7,28.59,SSW,192,0.0,0.0,28,0.00,,,0.00,VWS V14.00,2013-01-29 07:42:00,
2013-01-29 01:43:00,70.3,35.7,28.59,South,191,0.0,0.0,28,0.00,,,0.00,VWS V14.00,2013-01-29 07:43:00,
2013-01-29 01:45:00,70.5,35.0,28.59,SSW,194,0.0,0.0,27,0.00,,,0.00,VWS V14.00,2013-01-29 07:45:00,
2013-01-29 01:48:00,70.5,35.0,28.56,SSE,167,0.0,0.0,27,0.00,,,0.00,VWS V14.00,2013-01-29 07:48:00,
2013-01-29 01:49:00,70.7,35.1,28.56,South,176,0.0,0.0,27,0.00,,,0.00,VWS V14.00,2013-01-29 07:49:00,
2013-01-29 01:50:00,70.7,35.1,28.56,SSW,200,0.0,0.0,27,0.00,,,0.00,VWS V14.00,2013-01-29 07:50:00,
2013-01-29 01:53:00,70.9,35.3,28.56,South,180,0.0,0.0,27,0.00,,,0.00,VWS V14.00,2013-01-29 07:53:00,
2013-01-29 01:54:00,70.9,35.3,28.56,South,182,0.0,0.0,27,0.00,,,0.00,VWS V14.00,2013-01-29 07:54:00,
2013-01-29 01:56:00,70.9,34.3,28.56,SSE,162,0.0,0.0,26,0.00,,,0.00,VWS V14.00,2013-01-29 07:56:00,
2013-01-29 01:58:00,70.9,34.3,28.56,SSE,159,0.0,0.0,26,0.00,,,0.00,VWS V14.00,2013-01-29 07:58:00,
2013-01-29 01:59:00,70.9,34.3,28.56,South,174,0.0,0.0,26,0.00,,,0.00,VWS V14.00,2013-01-29 07:59:00,
2013-01-29 02:01:00,71.1,34.5,28.56,SSE,161,0.0,0.0,26,0.00,,,0.00,VWS V14.00,2013-01-29 08:01:00,
2013-01-29 02:02:00,70.9,34.3,28.56,SSE,151,0.0,0.0,26,0.00,,,0.00,VWS V14.00,2013-01-29 08:02:00,
2013-01-29 02:04:00,71.1,34.5,28.56,SSE,157,0.0,0.0,26,0.00,,,0.00,VWS V14.00,2013-01-29 08:04:00,
2013-01-29 02:06:00,70.9,34.3,28.56,SSE,150,0.0,0.0,26,0.00,,,0.00,VWS V14.00,2013-01-29 08:06:00,
2013-01-29 02:08:00,70.9,34.3,28.56,South,180,0.0,0.0,26,0.00,,,0.00,VWS V14.00,2013-01-29 08:08:00,
2013-01-29 02:09:00,70.9,34.3,28.56,South,175,0.0,0.0,26,0.00,,,0.00,VWS V14.00,2013-01-29 08:09:00,
2013-01-29 02:11:00,70.9,34.3,28.56,South,181,0.0,0.0,26,0.00,,,0.00,VWS V14.00,2013-01-29 08:11:00,
2013-01-29 02:12:00,70.9,34.3,28.56,South,181,0.0,0.0,26,0.00,,,0.00,VWS V14.00,2013-01-29 08:12:00,
2013-01-29 02:14:00,70.9,34.3,28.56,SSE,168,0.0,0.0,26,0.00,,,0.00,VWS V14.00,2013-01-29 08:14:00,
2013-01-29 02:17:00,70.9,34.3,28.56,South,188,0.0,0.0,26,0.00,,,0.00,VWS V14.00,2013-01-29 08:17:00,
2013-01-29 02:19:00,70.9,34.3,28.56,SSE,159,0.0,0.0,26,0.00,,,0.00,VWS V14.00,2013-01-29 08:19:00,
2013-01-29 02:22:00,70.9,34.3,28.56,South,179,0.0,0.0,26,0.00,,,0.00,VWS V14.00,2013-01-29 08:22:00,
2013-01-29 02:24:00,70.9,35.3,28.56,SSE,148,0.0,0.0,27,0.00,,,0.00,VWS V14.00,2013-01-29 08:24:00,
2013-01-29 02:27:00,70.9,35.3,28.56,East,83,0.0,0.0,27,0.00,,,0.00,VWS V14.00,2013-01-29 08:27:00,
2013-01-29 02:29:00,70.7,35.1,28.56,South,170,0.0,0.0,27,0.00,,,0.00,VWS V14.00,2013-01-29 08:29:00,
2013-01-29 02:31:00,70.7,35.1,28.56,South,189,0.0,0.0,27,0.00,,,0.00,VWS V14.00,2013-01-29 08:31:00,
2013-01-29 02:33:00,70.5,35.0,28.56,South,183,0.0,0.0,27,0.00,,,0.00,VWS V14.00,2013-01-29 08:33:00,
2013-01-29 02:34:00,70.5,35.9,28.56,SSE,167,0.0,0.0,28,0.00,,,0.00,VWS V14.00,2013-01-29 08:34:00,
2013-01-29 02:38:00,70.5,35.9,28.56,South,191,0.0,0.0,28,0.00,,,0.00,VWS V14.00,2013-01-29 08:38:00,
2013-01-29 02:40:00,70.5,35.9,28.56,South,191,0.0,0.0,28,0.00,,,0.00,VWS V14.00,2013-01-29 08:40:00,
2013-01-29 02:44:00,70.3,35.7,28.56,South,178,0.0,0.0,28,0.00,,,0.00,VWS V14.00,2013-01-29 08:44:00,
2013-01-29 02:45:00,70.3,35.7,28.56,SSE,163,0.0,0.0,28,0.00,,,0.00,VWS V14.00,2013-01-29 08:45:00,
2013-01-29 02:49:00,70.2,36.5,28.56,South,189,0.0,0.0,29,0.00,,,0.00,VWS V14.00,2013-01-29 08:49:00,
2013-01-29 02:50:00,70.2,36.5,28.56,SSE,165,0.0,0.0,29,0.00,,,0.00,VWS V14.00,2013-01-29 08:50:00,
2013-01-29 02:51:00,70.2,36.5,28.56,SSW,201,0.0,0.0,29,0.00,,,0.00,VWS V14.00,2013-01-29 08:51:00,
2013-01-29 02:54:00,70.0,36.3,28.56,South,177,0.0,0.0,29,0.00,,,0.00,VWS V14.00,2013-01-29 08:54:00,
2013-01-29 02:55:00,70.2,36.5,28.56,SSE,162,0.0,0.0,29,0.00,,,0.00,VWS V14.00,2013-01-29 08:55:00,
2013-01-29 02:56:00,70.0,36.3,28.56,SSE,166,0.0,0.0,29,0.00,,,0.00,VWS V14.00,2013-01-29 08:56:00,
2013-01-29 03:00:00,70.0,36.3,28.56,South,176,0.0,0.0,29,0.00,,,0.00,VWS V14.00,2013-01-29 09:00:00,
2013-01-29 03:01:00,70.0,36.3,28.56,South,189,0.0,0.0,29,0.00,,,0.00,VWS V14.00,2013-01-29 09:01:00,
2013-01-29 03:02:00,70.0,36.3,28.56,South,182,0.0,0.0,29,0.00,,,0.00,VWS V14.00,2013-01-29 09:02:00,
2013-01-29 03:05:00,70.0,37.2,28.56,SSE,168,0.0,0.0,30,0.00,,,0.00,VWS V14.00,2013-01-29 09:05:00,
2013-01-29 03:06:00,70.0,37.2,28.56,SSE,152,0.0,0.0,30,0.00,,,0.00,VWS V14.00,2013-01-29 09:06:00,
2013-01-29 03:07:00,70.0,36.3,28.56,South,182,0.0,0.0,29,0.00,,,0.00,VWS V14.00,2013-01-29 09:07:00,
2013-01-29 03:09:00,70.0,36.3,28.56,South,187,0.0,0.0,29,0.00,,,0.00,VWS V14.00,2013-01-29 09:09:00,
2013-01-29 03:11:00,70.0,36.3,28.56,South,181,0.0,0.0,29,0.00,,,0.00,VWS V14.00,2013-01-29 09:11:00,
2013-01-29 03:12:00,70.2,36.5,28.56,SSE,160,0.0,0.0,29,0.00,,,0.00,VWS V14.00,2013-01-29 09:12:00,
2013-01-29 03:16:00,70.0,36.3,28.56,SSE,159,0.0,0.0,29,0.00,,,0.00,VWS V14.00,2013-01-29 09:16:00,
2013-01-29 03:17:00,70.2,36.5,28.56,South,183,0.0,0.0,29,0.00,,,0.00,VWS V14.00,2013-01-29 09:17:00,
2013-01-29 03:18:00,70.2,36.5,28.56,SSE,163,0.0,0.0,29,0.00,,,0.00,VWS V14.00,2013-01-29 09:18:00,
2013-01-29 03:21:00,70.2,36.5,28.56,SSW,195,0.0,0.0,29,0.00,,,0.00,VWS V14.00,2013-01-29 09:21:00,
2013-01-29 03:22:00,70.2,36.5,28.56,South,191,0.0,0.0,29,0.00,,,0.00,VWS V14.00,2013-01-29 09:22:00,
2013-01-29 03:23:00,70.2,36.5,28.56,South,187,0.0,0.0,29,0.00,,,0.00,VWS V14.00,2013-01-29 09:23:00,
2013-01-29 03:28:00,70.2,35.6,28.56,South,182,0.0,0.0,28,0.00,,,0.00,VWS V14.00,2013-01-29 09:28:00,
2013-01-29 03:29:00,70.2,35.6,28.56,South,178,0.0,0.0,28,0.00,,,0.00,VWS V14.00,2013-01-29 09:29:00,
2013-01-29 03:33:00,70.2,35.6,28.56,South,185,0.0,0.0,28,0.00,,,0.00,VWS V14.00,2013-01-29 09:33:00,
2013-01-29 03:34:00,70.2,35.6,28.56,South,186,0.0,0.0,28,0.00,,,0.00,VWS V14.00,2013-01-29 09:34:00,
2013-01-29 03:35:00,70.2,35.6,28.56,SSE,159,0.0,0.0,28,0.00,,,0.00,VWS V14.00,2013-01-29 09:35:00,
2013-01-29 03:38:00,70.2,35.6,28.56,South,174,0.0,0.0,28,0.00,,,0.00,VWS V14.00,2013-01-29 09:38:00,
2013-01-29 03:40:00,70.3,35.7,28.56,South,172,0.0,0.0,28,0.00,,,0.00,VWS V14.00,2013-01-29 09:40:00,
2013-01-29 03:41:00,70.2,35.6,28.56,South,169,0.0,0.0,28,0.00,,,0.00,VWS V14.00,2013-01-29 09:41:00,
2013-01-29 03:44:00,70.2,35.6,28.56,SSE,168,0.0,0.0,28,0.00,,,0.00,VWS V14.00,2013-01-29 09:44:00,
2013-01-29 03:45:00,70.2,35.6,28.56,South,176,0.0,0.0,28,0.00,,,0.00,VWS V14.00,2013-01-29 09:45:00,
2013-01-29 03:46:00,70.2,35.6,28.56,SSW,205,0.0,0.0,28,0.00,,,0.00,VWS V14.00,2013-01-29 09:46:00,
2013-01-29 03:50:00,70.2,35.6,28.56,South,183,0.0,0.0,28,0.00,,,0.00,VWS V14.00,2013-01-29 09:50:00,
2013-01-29 03:52:00,70.2,35.6,28.56,SE,145,0.0,0.0,28,0.00,,,0.00,VWS V14.00,2013-01-29 09:52:00,
2013-01-29 03:55:00,70.2,35.6,28.56,South,183,0.0,0.0,28,0.00,,,0.00,VWS V14.00,2013-01-29 09:55:00,
2013-01-29 03:56:00,70.2,35.6,28.56,South,186,0.0,0.0,28,0.00,,,0.00,VWS V14.00,2013-01-29 09:56:00,
2013-01-29 03:58:00,70.2,35.6,28.56,South,185,0.0,0.0,28,0.00,,,0.00,VWS V14.00,2013-01-29 09:58:00,
2013-01-29 04:00:00,70.2,35.6,28.56,South,178,0.0,0.0,28,0.00,,,0.00,VWS V14.00,2013-01-29 10:00:00,
2013-01-29 04:01:00,70.2,35.6,28.53,SW,221,0.0,0.0,28,0.00,,,0.00,VWS V14.00,2013-01-29 10:01:00,
2013-01-29 04:02:00,70.2,35.6,28.53,South,181,0.0,0.0,28,0.00,,,0.00,VWS V14.00,2013-01-29 10:02:00,
2013-01-29 04:03:00,70.2,35.6,28.53,SSE,162,0.0,0.0,28,0.00,,,0.00,VWS V14.00,2013-01-29 10:03:00,
2013-01-29 04:06:00,70.2,35.6,28.53,South,183,0.0,0.0,28,0.00,,,0.00,VWS V14.00,2013-01-29 10:06:00,
2013-01-29 04:07:00,70.2,35.6,28.53,South,180,0.0,0.0,28,0.00,,,0.00,VWS V14.00,2013-01-29 10:07:00,
2013-01-29 04:08:00,70.2,35.6,28.53,South,180,0.0,0.0,28,0.00,,,0.00,VWS V14.00,2013-01-29 10:08:00,
2013-01-29 04:12:00,70.0,35.4,28.53,SSW,197,0.0,0.0,28,0.00,,,0.00,VWS V14.00,2013-01-29 10:12:00,
2013-01-29 04:13:00,70.0,36.3,28.53,South,183,0.0,0.0,29,0.00,,,0.00,VWS V14.00,2013-01-29 10:13:00,
2013-01-29 04:14:00,70.0,36.3,28.53,SSW,201,0.0,0.0,29,0.00,,,0.00,VWS V14.00,2013-01-29 10:14:00,
2013-01-29 04:17:00,70.0,36.3,28.53,South,179,0.0,0.0,29,0.00,,,0.00,VWS V14.00,2013-01-29 10:17:00,
2013-01-29 04:19:00,69.8,36.1,28.53,SSE,158,0.0,0.0,29,0.00,,,0.00,VWS V14.00,2013-01-29 10:19:00,
2013-01-29 04:23:00,69.8,36.1,28.53,South,177,0.0,0.0,29,0.00,,,0.00,VWS V14.00,2013-01-29 10:23:00,
2013-01-29 04:24:00,69.8,36.1,28.53,SSE,148,0.0,0.0,29,0.00,,,0.00,VWS V14.00,2013-01-29 10:24:00,
2013-01-29 04:25:00,69.8,36.1,28.53,SSE,164,0.0,0.0,29,0.00,,,0.00,VWS V14.00,2013-01-29 10:25:00,
2013-01-29 04:28:00,69.8,36.1,28.53,South,183,0.0,0.0,29,0.00,,,0.00,VWS V14.00,2013-01-29 10:28:00,
2013-01-29 04:30:00,69.8,36.1,28.53,South,191,0.0,0.0,29,0.00,,,0.00,VWS V14.00,2013-01-29 10:30:00,
2013-01-29 04:33:00,69.8,37.0,28.53,South,170,0.0,0.0,30,0.00,,,0.00,VWS V14.00,2013-01-29 10:33:00,
2013-01-29 04:35:00,69.6,36.8,28.53,SSE,164,0.0,0.0,30,0.00,,,0.00,VWS V14.00,2013-01-29 10:35:00,
2013-01-29 04:36:00,69.6,36.8,28.53,South,173,0.0,0.0,30,0.00,,,0.00,VWS V14.00,2013-01-29 10:36:00,
2013-01-29 04:38:00,69.8,37.0,28.53,South,170,0.0,0.0,30,0.00,,,0.00,VWS V14.00,2013-01-29 10:38:00,
2013-01-29 04:39:00,69.8,36.1,28.53,South,169,0.0,0.0,29,0.00,,,0.00,VWS V14.00,2013-01-29 10:39:00,
2013-01-29 04:40:00,69.8,36.1,28.53,SSE,164,0.0,0.0,29,0.00,,,0.00,VWS V14.00,2013-01-29 10:40:00,
2013-01-29 04:41:00,69.8,36.1,28.53,South,181,0.0,0.0,29,0.00,,,0.00,VWS V14.00,2013-01-29 10:41:00,
2013-01-29 04:44:00,69.6,36.8,28.53,South,181,0.0,0.0,30,0.00,,,0.00,VWS V14.00,2013-01-29 10:44:00,
2013-01-29 04:45:00,69.6,36.8,28.53,South,173,0.0,0.0,30,0.00,,,0.00,VWS V14.00,2013-01-29 10:45:00,
2013-01-29 04:47:00,69.6,36.8,28.53,South,178,0.0,0.0,30,0.00,,,0.00,VWS V14.00,2013-01-29 10:47:00,
2013-01-29 04:50:00,69.8,37.0,28.53,South,176,0.0,0.0,30,0.00,,,0.00,VWS V14.00,2013-01-29 10:50:00,
2013-01-29 04:51:00,69.6,36.8,28.53,South,177,0.0,0.0,30,0.00,,,0.00,VWS V14.00,2013-01-29 10:51:00,
2013-01-29 04:52:00,69.6,36.8,28.53,South,191,0.0,0.0,30,0.00,,,0.00,VWS V14.00,2013-01-29 10:52:00,
2013-01-29 04:55:00,69.6,36.8,28.53,South,187,0.0,0.0,30,0.00,,,0.00,VWS V14.00,2013-01-29 10:55:00,
2013-01-29 04:56:00,69.6,36.8,28.53,South,182,0.0,0.0,30,0.00,,,0.00,VWS V14.00,2013-01-29 10:56:00,
2013-01-29 04:57:00,69.6,36.8,28.53,SSE,147,0.0,0.0,30,0.00,,,0.00,VWS V14.00,2013-01-29 10:57:00,
2013-01-29 05:00:00,69.4,36.7,28.53,SE,128,0.0,0.0,30,0.00,,,0.00,VWS V14.00,2013-01-29 11:00:00,
2013-01-29 05:01:00,69.4,36.7,28.53,South,171,0.0,0.0,30,0.00,,,0.00,VWS V14.00,2013-01-29 11:01:00,
2013-01-29 05:02:00,69.6,36.8,28.53,South,180,0.0,0.0,30,0.00,,,0.00,VWS V14.00,2013-01-29 11:02:00,
2013-01-29 05:05:00,69.6,36.8,28.53,South,179,0.0,0.0,30,0.00,,,0.00,VWS V14.00,2013-01-29 11:05:00,
2013-01-29 05:07:00,69.8,36.1,28.53,SSW,193,0.0,0.0,29,0.00,,,0.00,VWS V14.00,2013-01-29 11:07:00,
2013-01-29 05:08:00,69.8,36.1,28.53,SSW,195,0.0,0.0,29,0.00,,,0.00,VWS V14.00,2013-01-29 11:08:00,
2013-01-29 05:11:00,69.8,36.1,28.53,South,181,0.0,0.0,29,0.00,,,0.00,VWS V14.00,2013-01-29 11:11:00,
2013-01-29 05:12:00,69.8,36.1,28.53,SSE,152,0.0,0.0,29,0.00,,,0.00,VWS V14.00,2013-01-29 11:12:00,
2013-01-29 05:13:00,69.8,36.1,28.53,South,179,0.0,0.0,29,0.00,,,0.00,VWS V14.00,2013-01-29 11:13:00,
2013-01-29 05:16:00,69.8,36.1,28.53,South,172,0.0,0.0,29,0.00,,,0.00,VWS V14.00,2013-01-29 11:16:00,
2013-01-29 05:18:00,69.8,36.1,28.50,SSE,162,0.0,0.0,29,0.00,,,0.00,VWS V14.00,2013-01-29 11:18:00,
2013-01-29 05:19:00,70.0,36.3,28.50,SSW,201,0.0,0.0,29,0.00,,,0.00,VWS V14.00,2013-01-29 11:19:00,
2013-01-29 05:21:00,70.0,36.3,28.50,South,169,0.0,0.0,29,0.00,,,0.00,VWS V14.00,2013-01-29 11:21:00,
2013-01-29 05:23:00,70.0,36.3,28.50,South,170,0.0,0.0,29,0.00,,,0.00,VWS V14.00,2013-01-29 11:23:00,
2013-01-29 05:24:00,70.2,35.6,28.50,South,186,0.0,0.0,28,0.00,,,0.00,VWS V14.00,2013-01-29 11:24:00,
2013-01-29 05:25:00,70.2,35.6,28.50,South,169,0.0,0.0,28,0.00,,,0.00,VWS V14.00,2013-01-29 11:25:00,
2013-01-29 05:27:00,70.2,35.6,28.50,South,183,0.0,0.0,28,0.00,,,0.00,VWS V14.00,2013-01-29 11:27:00,
2013-01-29 05:28:00,70.2,35.6,28.50,South,170,0.0,0.0,28,0.00,,,0.00,VWS V14.00,2013-01-29 11:28:00,
2013-01-29 05:30:00,70.0,35.4,28.50,South,169,0.0,0.0,28,0.00,,,0.00,VWS V14.00,2013-01-29 11:30:00,
2013-01-29 05:33:00,70.0,35.4,28.53,South,174,0.0,0.0,28,0.00,,,0.00,VWS V14.00,2013-01-29 11:33:00,
2013-01-29 05:34:00,70.0,35.4,28.53,South,191,0.0,0.0,28,0.00,,,0.00,VWS V14.00,2013-01-29 11:34:00,
2013-01-29 05:35:00,70.0,35.4,28.53,SSW,194,0.0,0.0,28,0.00,,,0.00,VWS V14.00,2013-01-29 11:35:00,
2013-01-29 05:36:00,70.0,35.4,28.53,South,189,0.0,0.0,28,0.00,,,0.00,VWS V14.00,2013-01-29 11:36:00,
2013-01-29 05:38:00,70.0,35.4,28.53,SSE,154,0.0,0.0,28,0.00,,,0.00,VWS V14.00,2013-01-29 11:38:00,
2013-01-29 05:40:00,70.0,35.4,28.53,SSW,209,0.0,0.0,28,0.00,,,0.00,VWS V14.00,2013-01-29 11:40:00,
2013-01-29 05:41:00,70.0,35.4,28.53,South,176,0.0,0.0,28,0.00,,,0.00,VWS V14.00,2013-01-29 11:41:00,
2013-01-29 05:44:00,70.2,35.6,28.53,South,182,0.0,0.0,28,0.00,,,0.00,VWS V14.00,2013-01-29 11:44:00,
2013-01-29 05:45:00,70.2,35.6,28.53,South,182,0.0,0.0,28,0.00,,,0.00,VWS V14.00,2013-01-29 11:45:00,
2013-01-29 05:46:00,70.2,35.6,28.53,South,191,0.0,0.0,28,0.00,,,0.00,VWS V14.00,2013-01-29 11:46:00,
2013-01-29 05:47:00,70.2,35.6,28.50,SSE,168,0.0,0.0,28,0.00,,,0.00,VWS V14.00,2013-01-29 11:47:00,
2013-01-29 05:50:00,70.2,35.6,28.50,SSE,167,0.0,0.0,28,0.00,,,0.00,VWS V14.00,2013-01-29 11:50:00,
2013-01-29 05:51:00,70.2,35.6,28.50,South,177,0.0,0.0,28,0.00,,,0.00,VWS V14.00,2013-01-29 11:51:00,
2013-01-29 05:53:00,70.2,34.7,28.50,SW,223,0.0,0.0,27,0.00,,,0.00,VWS V14.00,2013-01-29 11:53:00,
2013-01-29 05:56:00,70.3,34.8,28.50,South,172,0.0,0.0,27,0.00,,,0.00,VWS V14.00,2013-01-29 11:56:00,
2013-01-29 05:58:00,70.2,34.7,28.50,SSE,164,0.0,0.0,27,0.00,,,0.00,VWS V14.00,2013-01-29 11:58:00,
2013-01-29 06:01:00,70.2,34.7,28.50,SSW,194,0.0,0.0,27,0.00,,,0.00,VWS V14.00,2013-01-29 12:01:00,
2013-01-29 06:02:00,70.2,34.7,28.50,SSW,195,0.0,0.0,27,0.00,,,0.00,VWS V14.00,2013-01-29 12:02:00,
2013-01-29 06:03:00,70.2,34.7,28.50,SSW,194,0.0,0.0,27,0.00,,,0.00,VWS V14.00,2013-01-29 12:03:00,
2013-01-29 06:06:00,70.2,34.7,28.50,SSE,168,0.0,0.0,27,0.00,,,0.00,VWS V14.00,2013-01-29 12:06:00,
2013-01-29 06:07:00,70.2,34.7,28.50,SSE,166,0.0,0.0,27,0.00,,,0.00,VWS V14.00,2013-01-29 12:07:00,
2013-01-29 06:09:00,70.2,34.7,28.50,SE,125,0.0,0.0,27,0.00,,,0.00,VWS V14.00,2013-01-29 12:09:00,
2013-01-29 06:11:00,70.2,34.7,28.50,SSE,158,0.0,0.0,27,0.00,,,0.00,VWS V14.00,2013-01-29 12:11:00,
2013-01-29 06:12:00,70.2,34.7,28.50,SSE,157,0.0,0.0,27,0.00,,,0.00,VWS V14.00,2013-01-29 12:12:00,
2013-01-29 06:14:00,70.2,34.7,28.50,South,183,0.0,0.0,27,0.00,,,0.00,VWS V14.00,2013-01-29 12:14:00,
2013-01-29 06:17:00,70.2,34.7,28.50,South,176,0.0,0.0,27,0.00,,,0.00,VWS V14.00,2013-01-29 12:17:00,
2013-01-29 06:19:00,70.2,34.7,28.50,SSE,164,0.0,0.0,27,0.00,,,0.00,VWS V14.00,2013-01-29 12:19:00,
2013-01-29 06:22:00,70.2,34.7,28.50,South,186,0.0,0.0,27,0.00,,,0.00,VWS V14.00,2013-01-29 12:22:00,
2013-01-29 06:25:00,70.3,34.8,28.50,SSE,148,0.0,0.0,27,0.00,,,0.00,VWS V14.00,2013-01-29 12:25:00,
2013-01-29 06:27:00,70.3,34.8,28.50,South,184,0.0,0.0,27,0.00,,,0.00,VWS V14.00,2013-01-29 12:27:00,
2013-01-29 06:30:00,70.2,34.7,28.50,SSW,194,0.0,0.0,27,0.00,,,0.00,VWS V14.00,2013-01-29 12:30:00,
2013-01-29 06:32:00,70.3,34.8,28.50,SSW,205,0.0,0.0,27,0.00,,,0.00,VWS V14.00,2013-01-29 12:32:00,
2013-01-29 06:33:00,70.3,34.8,28.50,SSW,202,0.0,0.0,27,0.00,,,0.00,VWS V14.00,2013-01-29 12:33:00,
2013-01-29 06:35:00,70.3,34.8,28.50,SSW,205,0.0,0.0,27,0.00,,,0.00,VWS V14.00,2013-01-29 12:35:00,
2013-01-29 06:38:00,70.2,34.7,28.50,South,169,0.0,0.0,27,0.00,,,0.00,VWS V14.00,2013-01-29 12:38:00,
2013-01-29 06:40:00,70.0,34.5,28.50,South,174,0.0,0.0,27,0.00,,,0.00,VWS V14.00,2013-01-29 12:40:00,
2013-01-29 06:42:00,70.2,34.7,28.50,SSE,167,0.0,0.0,27,0.00,,,0.00,VWS V14.00,2013-01-29 12:42:00,
2013-01-29 06:43:00,70.2,34.7,28.50,SSE,148,0.0,0.0,27,0.00,,,0.00,VWS V14.00,2013-01-29 12:43:00,
2013-01-29 06:44:00,70.0,34.5,28.50,SSE,156,0.0,0.0,27,0.00,,,0.00,VWS V14.00,2013-01-29 12:44:00,
2013-01-29 06:45:00,70.2,34.7,28.50,South,180,0.0,0.0,27,0.00,,,0.00,VWS V14.00,2013-01-29 12:45:00,
2013-01-29 06:48:00,70.2,34.7,28.47,SSE,159,0.0,0.0,27,0.00,,,0.00,VWS V14.00,2013-01-29 12:48:00,
2013-01-29 06:50:00,70.2,34.7,28.47,SSE,162,0.0,0.0,27,0.00,,,0.00,VWS V14.00,2013-01-29 12:50:00,
2013-01-29 06:51:00,70.2,34.7,28.47,SSE,168,0.0,0.0,27,0.00,,,0.00,VWS V14.00,2013-01-29 12:51:00,
2013-01-29 06:53:00,70.2,34.7,28.47,SSE,167,0.0,0.0,27,0.00,,,0.00,VWS V14.00,2013-01-29 12:53:00,
2013-01-29 06:54:00,70.0,34.5,28.47,East,83,0.0,0.0,27,0.00,,,0.00,VWS V14.00,2013-01-29 12:54:00,
2013-01-29 06:55:00,70.0,34.5,28.47,SSW,199,0.0,0.0,27,0.00,,,0.00,VWS V14.00,2013-01-29 12:55:00,
2013-01-29 06:56:00,70.0,34.5,28.47,South,175,0.0,0.0,27,0.00,,,0.00,VWS V14.00,2013-01-29 12:56:00,
2013-01-29 06:58:00,70.2,34.7,28.47,SSE,165,0.0,0.0,27,0.00,,,0.00,VWS V14.00,2013-01-29 12:58:00,
2013-01-29 07:00:00,70.0,34.5,28.47,SSE,166,0.0,0.0,27,0.00,,,0.00,VWS V14.00,2013-01-29 13:00:00,
2013-01-29 07:01:00,70.0,34.5,28.47,South,182,0.0,0.0,27,0.00,,,0.00,VWS V14.00,2013-01-29 13:01:00,
2013-01-29 07:05:00,70.0,34.5,28.47,South,177,0.0,0.0,27,0.00,,,0.00,VWS V14.00,2013-01-29 13:05:00,
2013-01-29 07:06:00,69.8,34.3,28.47,SSE,165,0.0,0.0,27,0.00,,,0.00,VWS V14.00,2013-01-29 13:06:00,
2013-01-29 07:08:00,69.8,34.3,28.47,SSE,158,0.0,0.0,27,0.00,,,0.00,VWS V14.00,2013-01-29 13:08:00,
2013-01-29 07:10:00,69.8,34.3,28.47,South,178,0.0,0.0,27,0.00,,,0.00,VWS V14.00,2013-01-29 13:10:00,
2013-01-29 07:11:00,69.8,35.3,28.47,SSW,199,0.0,0.0,28,0.00,,,0.00,VWS V14.00,2013-01-29 13:11:00,
2013-01-29 07:12:00,69.8,35.3,28.47,SSW,197,0.0,0.0,28,0.00,,,0.00,VWS V14.00,2013-01-29 13:12:00,
2013-01-29 07:14:00,69.8,34.3,28.47,SSE,164,0.0,0.0,27,0.00,,,0.00,VWS V14.00,2013-01-29 13:14:00,
2013-01-29 07:15:00,69.8,34.3,28.47,SSE,162,0.0,0.0,27,0.00,,,0.00,VWS V14.00,2013-01-29 13:15:00,
2013-01-29 07:16:00,70.0,34.5,28.47,SW,215,0.0,0.0,27,0.00,,,0.00,VWS V14.00,2013-01-29 13:16:00,
2013-01-29 07:17:00,70.0,34.5,28.47,SSE,164,0.0,0.0,27,0.00,,,0.00,VWS V14.00,2013-01-29 13:17:00,
2013-01-29 07:20:00,70.0,34.5,28.47,South,183,0.0,0.0,27,0.00,,,0.00,VWS V14.00,2013-01-29 13:20:00,
2013-01-29 07:21:00,70.0,34.5,28.47,SSE,168,0.0,0.0,27,0.00,,,0.00,VWS V14.00,2013-01-29 13:21:00,
2013-01-29 07:23:00,70.2,34.7,28.47,South,172,0.0,0.0,27,0.00,,,0.00,VWS V14.00,2013-01-29 13:23:00,
2013-01-29 07:26:00,70.2,34.7,28.47,South,185,0.0,0.0,27,0.00,,,0.00,VWS V14.00,2013-01-29 13:26:00,
2013-01-29 07:27:00,70.0,34.5,28.47,South,186,0.0,0.0,27,0.00,,,0.00,VWS V14.00,2013-01-29 13:27:00,
2013-01-29 07:28:00,70.0,34.5,28.47,South,189,0.0,0.0,27,0.00,,,0.00,VWS V14.00,2013-01-29 13:28:00,
2013-01-29 07:29:00,70.0,34.5,28.47,SSE,162,0.0,0.0,27,0.00,,,0.00,VWS V14.00,2013-01-29 13:29:00,
2013-01-29 07:31:00,70.2,34.7,28.47,SSW,197,0.0,0.0,27,0.00,,,0.00,VWS V14.00,2013-01-29 13:31:00,
2013-01-29 07:33:00,70.2,34.7,28.47,SSE,168,0.0,0.0,27,0.00,,,0.00,VWS V14.00,2013-01-29 13:33:00,
2013-01-29 07:34:00,70.2,34.7,28.47,SSE,163,0.0,0.0,27,0.00,,,0.00,VWS V14.00,2013-01-29 13:34:00,
2013-01-29 07:37:00,70.2,33.7,28.47,South,183,0.0,0.0,26,0.00,,,0.00,VWS V14.00,2013-01-29 13:37:00,
2013-01-29 07:39:00,70.2,33.7,28.47,South,190,0.0,0.0,26,0.00,,,0.00,VWS V14.00,2013-01-29 13:39:00,
2013-01-29 07:40:00,70.2,33.7,28.47,SSE,156,0.0,0.0,26,0.00,,,0.00,VWS V14.00,2013-01-29 13:40:00,
2013-01-29 07:43:00,70.2,34.7,28.47,SSW,207,0.0,0.0,27,0.00,,,0.00,VWS V14.00,2013-01-29 13:43:00,
2013-01-29 07:45:00,70.2,34.7,28.47,South,179,0.0,0.0,27,0.00,,,0.00,VWS V14.00,2013-01-29 13:45:00,
2013-01-29 07:49:00,70.2,33.7,28.47,South,171,0.0,0.0,26,0.00,,,0.00,VWS V14.00,2013-01-29 13:49:00,
2013-01-29 07:50:00,70.2,33.7,28.47,SSE,152,0.0,0.0,26,0.00,,,0.00,VWS V14.00,2013-01-29 13:50:00,
2013-01-29 07:51:00,70.2,33.7,28.47,South,170,0.0,0.0,26,0.00,,,0.00,VWS V14.00,2013-01-29 13:51:00,
2013-01-29 07:52:00,70.2,33.7,28.47,South,178,0.0,0.0,26,0.00,,,0.00,VWS V14.00,2013-01-29 13:52:00,
2013-01-29 07:54:00,70.2,33.7,28.47,SSE,167,0.0,0.0,26,0.00,,,0.00,VWS V14.00,2013-01-29 13:54:00,
2013-01-29 07:55:00,70.2,33.7,28.47,SSW,194,0.0,0.0,26,0.00,,,0.00,VWS V14.00,2013-01-29 13:55:00,
2013-01-29 07:57:00,70.2,33.7,28.47,SSE,158,0.0,0.0,26,0.00,,,0.00,VWS V14.00,2013-01-29 13:57:00,
2013-01-29 07:58:00,70.3,33.9,28.47,South,185,0.0,0.0,26,0.00,,,0.00,VWS V14.00,2013-01-29 13:58:00,
2013-01-29 08:00:00,70.3,33.9,28.47,SSE,148,0.0,0.0,26,0.00,,,0.00,VWS V14.00,2013-01-29 14:00:00,
2013-01-29 08:01:00,70.3,33.9,28.47,SSE,150,0.0,0.0,26,0.00,,,0.00,VWS V14.00,2013-01-29 14:01:00,
2013-01-29 08:03:00,70.3,33.9,28.47,South,171,0.0,0.0,26,0.00,,,0.00,VWS V14.00,2013-01-29 14:03:00,
2013-01-29 08:06:00,70.5,34.0,28.47,SSE,157,0.0,0.0,26,0.00,,,0.00,VWS V14.00,2013-01-29 14:06:00,
2013-01-29 08:08:00,70.5,33.0,28.47,SSW,192,0.0,0.0,25,0.00,,,0.00,VWS V14.00,2013-01-29 14:08:00,
2013-01-29 08:09:00,70.5,33.0,28.47,SW,233,0.0,0.0,25,0.00,,,0.00,VWS V14.00,2013-01-29 14:09:00,
2013-01-29 08:11:00,70.5,33.0,28.47,South,182,0.0,0.0,25,0.00,,,0.00,VWS V14.00,2013-01-29 14:11:00,
2013-01-29 08:12:00,70.5,33.0,28.47,South,172,0.0,0.0,25,0.00,,,0.00,VWS V14.00,2013-01-29 14:12:00,
2013-01-29 08:14:00,70.5,33.0,28.47,SSW,201,0.0,0.0,25,0.00,,,0.00,VWS V14.00,2013-01-29 14:14:00,
2013-01-29 08:15:00,70.5,33.0,28.47,SE,141,0.0,0.0,25,0.00,,,0.00,VWS V14.00,2013-01-29 14:15:00,
2013-01-29 08:16:00,70.5,33.0,28.44,SSW,196,0.0,0.0,25,0.00,,,0.00,VWS V14.00,2013-01-29 14:16:00,
2013-01-29 08:17:00,70.7,33.2,28.44,SSW,193,0.0,0.0,25,0.00,,,0.00,VWS V14.00,2013-01-29 14:17:00,
2013-01-29 08:20:00,70.7,33.2,28.44,South,181,0.0,0.0,25,0.00,,,0.00,VWS V14.00,2013-01-29 14:20:00,
2013-01-29 08:22:00,70.7,32.2,28.44,SSW,193,0.0,0.0,24,0.00,,,0.00,VWS V14.00,2013-01-29 14:22:00,
2013-01-29 08:25:00,71.1,32.5,28.44,SSE,167,0.0,0.0,24,0.00,,,0.00,VWS V14.00,2013-01-29 14:25:00,
2013-01-29 08:26:00,71.1,32.5,28.44,South,178,0.0,0.0,24,0.00,,,0.00,VWS V14.00,2013-01-29 14:26:00,
2013-01-29 08:27:00,71.1,32.5,28.44,South,183,0.0,0.0,24,0.00,,,0.00,VWS V14.00,2013-01-29 14:27:00,
2013-01-29 08:30:00,71.2,31.6,28.44,SSW,193,0.0,0.0,23,0.00,,,0.00,VWS V14.00,2013-01-29 14:30:00,
2013-01-29 08:31:00,71.4,31.7,28.44,SSE,164,0.0,0.0,23,0.00,,,0.00,VWS V14.00,2013-01-29 14:31:00,
2013-01-29 08:32:00,71.4,31.7,28.44,South,174,0.0,0.0,23,0.00,,,0.00,VWS V14.00,2013-01-29 14:32:00,
2013-01-29 08:33:00,71.4,31.7,28.44,South,183,0.0,0.0,23,0.00,,,0.00,VWS V14.00,2013-01-29 14:33:00,
2013-01-29 08:36:00,71.6,30.8,28.44,South,183,0.0,0.0,22,0.00,,,0.00,VWS V14.00,2013-01-29 14:36:00,
2013-01-29 08:37:00,71.6,30.8,28.44,South,175,0.0,0.0,22,0.00,,,0.00,VWS V14.00,2013-01-29 14:37:00,
2013-01-29 08:38:00,71.6,30.8,28.44,SSE,148,0.0,0.0,22,0.00,,,0.00,VWS V14.00,2013-01-29 14:38:00,
2013-01-29 08:41:00,71.4,30.6,28.44,SSE,151,0.0,0.0,22,0.00,,,0.00,VWS V14.00,2013-01-29 14:41:00,
2013-01-29 08:43:00,71.4,30.6,28.44,SE,144,0.0,0.0,22,0.00,,,0.00,VWS V14.00,2013-01-29 14:43:00,
2013-01-29 08:44:00,71.6,30.8,28.44,SSW,201,0.0,0.0,22,0.00,,,0.00,VWS V14.00,2013-01-29 14:44:00,
2013-01-29 08:46:00,71.8,30.9,28.44,SSE,164,0.0,0.0,22,0.00,,,0.00,VWS V14.00,2013-01-29 14:46:00,
2013-01-29 08:48:00,71.8,30.9,28.44,South,181,0.0,0.0,22,0.00,,,0.00,VWS V14.00,2013-01-29 14:48:00,
2013-01-29 08:49:00,71.8,29.8,28.44,South,170,0.0,0.0,21,0.00,,,0.00,VWS V14.00,2013-01-29 14:49:00,
2013-01-29 08:52:00,72.1,30.1,28.44,South,179,0.0,0.0,21,0.00,,,0.00,VWS V14.00,2013-01-29 14:52:00,
2013-01-29 08:53:00,72.1,30.1,28.44,South,188,0.0,0.0,21,0.00,,,0.00,VWS V14.00,2013-01-29 14:53:00,
2013-01-29 08:54:00,72.1,30.1,28.44,South,181,0.0,0.0,21,0.00,,,0.00,VWS V14.00,2013-01-29 14:54:00,
2013-01-29 08:58:00,72.0,29.9,28.44,South,171,0.0,0.0,21,0.00,,,0.00,VWS V14.00,2013-01-29 14:58:00,
2013-01-29 08:59:00,72.0,29.9,28.44,South,172,0.0,0.0,21,0.00,,,0.00,VWS V14.00,2013-01-29 14:59:00,
2013-01-29 09:00:00,71.8,29.8,28.44,South,170,0.0,0.0,21,0.00,,,0.00,VWS V14.00,2013-01-29 15:00:00,
2013-01-29 09:04:00,71.6,30.8,28.44,SSE,162,0.0,0.0,22,0.00,,,0.00,VWS V14.00,2013-01-29 15:04:00,
2013-01-29 09:05:00,71.4,30.6,28.44,South,176,0.0,0.0,22,0.00,,,0.00,VWS V14.00,2013-01-29 15:05:00,
2013-01-29 09:06:00,71.4,30.6,28.44,South,185,0.0,0.0,22,0.00,,,0.00,VWS V14.00,2013-01-29 15:06:00,
2013-01-29 09:09:00,71.4,31.7,28.44,South,181,0.0,0.0,23,0.00,,,0.00,VWS V14.00,2013-01-29 15:09:00,
2013-01-29 09:10:00,71.4,31.7,28.44,South,187,0.0,0.0,23,0.00,,,0.00,VWS V14.00,2013-01-29 15:10:00,
2013-01-29 09:11:00,71.4,31.7,28.44,SSW,208,0.0,0.0,23,0.00,,,0.00,VWS V14.00,2013-01-29 15:11:00,
2013-01-29 09:14:00,71.4,31.7,28.44,SSE,166,0.0,0.0,23,0.00,,,0.00,VWS V14.00,2013-01-29 15:14:00,
2013-01-29 09:15:00,71.4,30.6,28.44,SSE,168,0.0,0.0,22,0.00,,,0.00,VWS V14.00,2013-01-29 15:15:00,
2013-01-29 09:17:00,71.4,31.7,28.44,SSW,193,0.0,0.0,23,0.00,,,0.00,VWS V14.00,2013-01-29 15:17:00,
2013-01-29 09:19:00,71.4,30.6,28.44,South,182,0.0,0.0,22,0.00,,,0.00,VWS V14.00,2013-01-29 15:19:00,
2013-01-29 09:20:00,71.4,30.6,28.44,SW,224,0.0,0.0,22,0.00,,,0.00,VWS V14.00,2013-01-29 15:20:00,
2013-01-29 09:21:00,71.4,30.6,28.44,SSE,164,0.0,0.0,22,0.00,,,0.00,VWS V14.00,2013-01-29 15:21:00,
2013-01-29 09:22:00,71.6,30.8,28.44,South,173,0.0,0.0,22,0.00,,,0.00,VWS V14.00,2013-01-29 15:22:00,
2013-01-29 09:25:00,71.8,29.8,28.44,South,174,0.0,0.0,21,0.00,,,0.00,VWS V14.00,2013-01-29 15:25:00,
2013-01-29 09:26:00,71.8,29.8,28.44,South,169,0.0,0.0,21,0.00,,,0.00,VWS V14.00,2013-01-29 15:26:00,
2013-01-29 09:28:00,71.8,29.8,28.44,South,181,0.0,0.0,21,0.00,,,0.00,VWS V14.00,2013-01-29 15:28:00,
2013-01-29 09:31:00,72.0,29.9,28.44,South,177,0.0,0.0,21,0.00,,,0.00,VWS V14.00,2013-01-29 15:31:00,
2013-01-29 09:32:00,72.0,29.9,28.47,South,191,0.0,0.0,21,0.00,,,0.00,VWS V14.00,2013-01-29 15:32:00,
2013-01-29 09:33:00,72.0,29.9,28.47,South,176,0.0,0.0,21,0.00,,,0.00,VWS V14.00,2013-01-29 15:33:00,
2013-01-29 09:36:00,72.0,29.9,28.47,SSW,194,0.0,0.0,21,0.00,,,0.00,VWS V14.00,2013-01-29 15:36:00,
2013-01-29 09:37:00,72.0,29.9,28.47,SSE,155,0.0,0.0,21,0.00,,,0.00,VWS V14.00,2013-01-29 15:37:00,
2013-01-29 09:38:00,72.0,29.9,28.47,SSW,195,0.0,0.0,21,0.00,,,0.00,VWS V14.00,2013-01-29 15:38:00,
2013-01-29 09:39:00,72.0,29.9,28.47,South,171,0.0,0.0,21,0.00,,,0.00,VWS V14.00,2013-01-29 15:39:00,
2013-01-29 09:41:00,72.0,29.9,28.47,SW,221,0.0,0.0,21,0.00,,,0.00,VWS V14.00,2013-01-29 15:41:00,
2013-01-29 09:43:00,72.0,29.9,28.47,South,185,0.0,0.0,21,0.00,,,0.00,VWS V14.00,2013-01-29 15:43:00,
2013-01-29 09:44:00,72.0,29.9,28.47,SSW,207,0.0,0.0,21,0.00,,,0.00,VWS V14.00,2013-01-29 15:44:00,
2013-01-29 09:46:00,72.0,29.9,28.47,South,178,0.0,0.0,21,0.00,,,0.00,VWS V14.00,2013-01-29 15:46:00,
2013-01-29 09:48:00,72.0,29.9,28.47,SSE,152,0.0,0.0,21,0.00,,,0.00,VWS V14.00,2013-01-29 15:48:00,
2013-01-29 09:49:00,72.0,29.9,28.47,SSE,154,0.0,0.0,21,0.00,,,0.00,VWS V14.00,2013-01-29 15:49:00,
2013-01-29 09:52:00,72.0,29.9,28.47,South,173,0.0,0.0,21,0.00,,,0.00,VWS V14.00,2013-01-29 15:52:00,
2013-01-29 09:53:00,72.0,29.9,28.47,SSW,211,0.0,0.0,21,0.00,,,0.00,VWS V14.00,2013-01-29 15:53:00,
2013-01-29 09:54:00,72.0,29.9,28.47,South,169,0.0,0.0,21,0.00,,,0.00,VWS V14.00,2013-01-29 15:54:00,
2013-01-29 09:57:00,72.0,29.9,28.47,SSW,199,0.0,0.0,21,0.00,,,0.00,VWS V14.00,2013-01-29 15:57:00,
2013-01-29 09:58:00,72.1,30.1,28.47,SSW,202,0.0,0.0,21,0.00,,,0.00,VWS V14.00,2013-01-29 15:58:00,
2013-01-29 10:00:00,72.1,30.1,28.47,SSW,194,0.0,0.0,21,0.00,,,0.00,VWS V14.00,2013-01-29 16:00:00,
2013-01-29 10:02:00,72.1,30.1,28.47,SSE,166,0.0,0.0,21,0.00,,,0.00,VWS V14.00,2013-01-29 16:02:00,
2013-01-29 10:03:00,72.3,30.2,28.47,South,170,0.0,0.0,21,0.00,,,0.00,VWS V14.00,2013-01-29 16:03:00,
2013-01-29 10:04:00,72.3,30.2,28.47,South,173,0.0,0.0,21,0.00,,,0.00,VWS V14.00,2013-01-29 16:04:00,
2013-01-29 10:06:00,72.3,29.0,28.47,SSW,212,0.0,0.0,20,0.00,,,0.00,VWS V14.00,2013-01-29 16:06:00,
2013-01-29 10:08:00,72.3,29.0,28.47,South,169,0.0,0.0,20,0.00,,,0.00,VWS V14.00,2013-01-29 16:08:00,
2013-01-29 10:09:00,72.3,29.0,28.47,South,184,0.0,0.0,20,0.00,,,0.00,VWS V14.00,2013-01-29 16:09:00,
2013-01-29 10:10:00,72.1,28.9,28.47,South,189,0.0,0.0,20,0.00,,,0.00,VWS V14.00,2013-01-29 16:10:00,
2013-01-29 10:12:00,72.1,30.1,28.47,South,177,0.0,0.0,21,0.00,,,0.00,VWS V14.00,2013-01-29 16:12:00,
2013-01-29 10:13:00,72.1,30.1,28.47,South,177,0.0,0.0,21,0.00,,,0.00,VWS V14.00,2013-01-29 16:13:00,
2013-01-29 10:15:00,72.1,30.1,28.47,South,182,0.0,0.0,21,0.00,,,0.00,VWS V14.00,2013-01-29 16:15:00,
2013-01-29 10:16:00,72.1,30.1,28.47,SSE,159,0.0,0.0,21,0.00,,,0.00,VWS V14.00,2013-01-29 16:16:00,
2013-01-29 10:17:00,72.1,30.1,28.47,South,181,0.0,0.0,21,0.00,,,0.00,VWS V14.00,2013-01-29 16:17:00,
2013-01-29 10:18:00,72.1,30.1,28.47,SSE,164,0.0,0.0,21,0.00,,,0.00,VWS V14.00,2013-01-29 16:18:00,
2013-01-29 10:21:00,72.3,29.0,28.47,SE,146,0.0,0.0,20,0.00,,,0.00,VWS V14.00,2013-01-29 16:21:00,
2013-01-29 10:23:00,72.9,29.5,28.47,SSE,168,0.0,0.0,20,0.00,,,0.00,VWS V14.00,2013-01-29 16:23:00,
2013-01-29 10:24:00,73.0,29.6,28.47,SSE,164,0.0,0.0,20,0.00,,,0.00,VWS V14.00,2013-01-29 16:24:00,
2013-01-29 10:26:00,73.9,29.1,28.47,South,183,0.0,0.0,19,0.00,,,0.00,VWS V14.00,2013-01-29 16:26:00,
2013-01-29 10:29:00,74.7,28.4,28.47,South,181,0.0,0.0,18,0.00,,,0.00,VWS V14.00,2013-01-29 16:29:00,
2013-01-29 10:30:00,74.3,28.1,28.47,SSE,156,0.0,0.0,18,0.00,,,0.00,VWS V14.00,2013-01-29 16:30:00,
2013-01-29 10:31:00,74.5,28.2,28.47,SSE,165,0.0,0.0,18,0.00,,,0.00,VWS V14.00,2013-01-29 16:31:00,
2013-01-29 10:32:00,74.5,28.2,28.44,SSW,204,0.0,0.0,18,0.00,,,0.00,VWS V14.00,2013-01-29 16:32:00,
2013-01-29 10:34:00,74.1,27.9,28.44,SSE,159,0.0,0.0,18,0.00,,,0.00,VWS V14.00,2013-01-29 16:34:00,
2013-01-29 10:35:00,74.7,28.4,28.44,SSE,167,0.0,0.0,18,0.00,,,0.00,VWS V14.00,2013-01-29 16:35:00,
2013-01-29 10:37:00,75.6,27.7,28.44,SSE,167,0.0,0.0,17,0.00,,,0.00,VWS V14.00,2013-01-29 16:37:00,
2013-01-29 10:38:00,75.4,27.6,28.44,South,190,0.0,0.0,17,0.00,,,0.00,VWS V14.00,2013-01-29 16:38:00,
2013-01-29 10:40:00,76.3,28.3,28.44,SSE,167,0.0,0.0,17,0.00,,,0.00,VWS V14.00,2013-01-29 16:40:00,
2013-01-29 10:43:00,78.1,28.3,28.44,South,183,0.0,0.0,16,0.00,,,0.00,VWS V14.00,2013-01-29 16:43:00,
2013-01-29 10:44:00,78.8,28.9,28.44,SSE,164,0.0,0.0,16,0.00,,,0.00,VWS V14.00,2013-01-29 16:44:00,
2013-01-29 10:46:00,80.8,28.9,28.44,South,180,0.0,0.0,15,0.00,,,0.00,VWS V14.00,2013-01-29 16:46:00,
2013-01-29 10:48:00,81.7,29.6,28.41,SSW,201,0.0,0.0,15,0.00,,,0.00,VWS V14.00,2013-01-29 16:48:00,
2013-01-29 10:50:00,80.1,28.3,28.41,South,186,0.0,0.0,15,0.00,,,0.00,VWS V14.00,2013-01-29 16:50:00,
2013-01-29 10:51:00,79.0,27.4,28.41,SSE,162,0.0,0.0,15,0.00,,,0.00,VWS V14.00,2013-01-29 16:51:00,
2013-01-29 10:53:00,78.3,28.4,28.41,South,174,0.0,0.0,16,0.00,,,0.00,VWS V14.00,2013-01-29 16:53:00,
2013-01-29 10:56:00,76.5,27.0,28.41,SSW,208,0.0,0.0,16,0.00,,,0.00,VWS V14.00,2013-01-29 16:56:00,
2013-01-29 10:58:00,75.9,26.5,28.41,South,182,0.0,0.0,16,0.00,,,0.00,VWS V14.00,2013-01-29 16:58:00,
2013-01-29 10:59:00,75.4,27.6,28.41,South,172,0.0,0.0,17,0.00,,,0.00,VWS V14.00,2013-01-29 16:59:00,
2013-01-29 11:01:00,76.3,28.3,28.41,South,175,0.0,0.0,17,0.00,,,0.00,VWS V14.00,2013-01-29 17:01:00,
2013-01-29 11:02:00,76.3,28.3,28.44,WSW,246,0.0,0.0,17,0.00,,,0.00,VWS V14.00,2013-01-29 17:02:00,
2013-01-29 11:04:00,76.1,28.2,28.44,South,190,0.0,0.0,17,0.00,,,0.00,VWS V14.00,2013-01-29 17:04:00,
2013-01-29 11:06:00,75.9,28.0,28.44,South,179,0.0,0.0,17,0.00,,,0.00,VWS V14.00,2013-01-29 17:06:00,
2013-01-29 11:07:00,75.7,27.9,28.44,South,171,0.0,0.0,17,0.00,,,0.00,VWS V14.00,2013-01-29 17:07:00,
2013-01-29 11:09:00,76.5,27.0,28.44,South,183,0.0,0.0,16,0.00,,,0.00,VWS V14.00,2013-01-29 17:09:00,
2013-01-29 11:11:00,76.6,27.1,28.44,SSE,159,0.0,0.0,16,0.00,,,0.00,VWS V14.00,2013-01-29 17:11:00,
2013-01-29 11:12:00,76.5,27.0,28.44,South,178,0.0,0.0,16,0.00,,,0.00,VWS V14.00,2013-01-29 17:12:00,
2013-01-29 11:14:00,76.6,27.1,28.44,South,173,0.0,0.0,16,0.00,,,0.00,VWS V14.00,2013-01-29 17:14:00,
2013-01-29 11:15:00,76.6,27.1,28.44,South,181,0.0,0.0,16,0.00,,,0.00,VWS V14.00,2013-01-29 17:15:00,
2013-01-29 11:17:00,76.5,27.0,28.41,SSE,167,0.0,0.0,16,0.00,,,0.00,VWS V14.00,2013-01-29 17:17:00,
2013-01-29 11:20:00,76.6,27.1,28.41,South,177,0.0,0.0,16,0.00,,,0.00,VWS V14.00,2013-01-29 17:20:00,
2013-01-29 11:23:00,77.2,27.6,28.41,South,173,0.0,0.0,16,0.00,,,0.00,VWS V14.00,2013-01-29 17:23:00,
2013-01-29 11:25:00,77.5,27.9,28.41,South,190,0.0,0.0,16,0.00,,,0.00,VWS V14.00,2013-01-29 17:25:00,
2013-01-29 11:28:00,77.9,28.1,28.41,SSW,193,0.0,0.0,16,0.00,,,0.00,VWS V14.00,2013-01-29 17:28:00,
2013-01-29 11:30:00,77.2,27.6,28.41,South,172,0.0,0.0,16,0.00,,,0.00,VWS V14.00,2013-01-29 17:30:00,
2013-01-29 11:31:00,77.2,27.6,28.41,South,172,0.0,0.0,16,0.00,,,0.00,VWS V14.00,2013-01-29 17:31:00,
2013-01-29 11:33:00,77.2,27.6,28.41,SSW,194,0.0,0.0,16,0.00,,,0.00,VWS V14.00,2013-01-29 17:33:00,
2013-01-29 11:36:00,78.3,28.4,28.41,South,181,0.0,0.0,16,0.00,,,0.00,VWS V14.00,2013-01-29 17:36:00,
2013-01-29 11:38:00,77.7,28.0,28.41,South,182,0.0,0.0,16,0.00,,,0.00,VWS V14.00,2013-01-29 17:38:00,
2013-01-29 11:39:00,77.7,28.0,28.41,South,182,0.0,0.0,16,0.00,,,0.00,VWS V14.00,2013-01-29 17:39:00,
2013-01-29 11:41:00,77.9,28.1,28.41,SW,214,0.0,0.0,16,0.00,,,0.00,VWS V14.00,2013-01-29 17:41:00,
2013-01-29 11:42:00,77.9,28.1,28.41,South,173,0.0,0.0,16,0.00,,,0.00,VWS V14.00,2013-01-29 17:42:00,
2013-01-29 11:44:00,77.9,28.1,28.41,South,172,0.0,0.0,16,0.00,,,0.00,VWS V14.00,2013-01-29 17:44:00,
2013-01-29 11:47:00,78.1,28.3,28.41,SSW,207,0.0,0.0,16,0.00,,,0.00,VWS V14.00,2013-01-29 17:47:00,
2013-01-29 11:48:00,79.3,27.7,28.41,South,175,0.0,0.0,15,0.00,,,0.00,VWS V14.00,2013-01-29 17:48:00,
2013-01-29 11:50:00,78.3,28.4,28.41,South,187,0.0,0.0,16,0.00,,,0.00,VWS V14.00,2013-01-29 17:50:00,
2013-01-29 11:52:00,78.3,28.4,28.41,SSW,211,0.0,0.0,16,0.00,,,0.00,VWS V14.00,2013-01-29 17:52:00,
2013-01-29 11:53:00,78.1,28.3,28.41,South,171,0.0,0.0,16,0.00,,,0.00,VWS V14.00,2013-01-29 17:53:00,
2013-01-29 11:55:00,77.4,27.7,28.41,South,178,0.0,0.0,16,0.00,,,0.00,VWS V14.00,2013-01-29 17:55:00,
2013-01-29 11:56:00,77.4,27.7,28.41,South,186,0.0,0.0,16,0.00,,,0.00,VWS V14.00,2013-01-29 17:56:00,
2013-01-29 11:57:00,76.8,27.3,28.41,SSW,192,0.0,0.0,16,0.00,,,0.00,VWS V14.00,2013-01-29 17:57:00,
2013-01-29 11:59:00,78.1,28.3,28.41,SSE,158,0.0,0.0,16,0.00,,,0.00,VWS V14.00,2013-01-29 17:59:00,
2013-01-29 12:00:00,78.1,28.3,28.41,South,171,0.0,0.0,16,0.00,,,0.00,VWS V14.00,2013-01-29 18:00:00,
2013-01-29 12:01:00,78.1,28.3,28.41,South,171,0.0,0.0,16,0.00,,,0.00,VWS V14.00,2013-01-29 18:01:00,
2013-01-29 12:02:00,78.1,28.3,28.41,South,171,0.0,0.0,16,0.00,,,0.00,VWS V14.00,2013-01-29 18:02:00,
2013-01-29 12:05:00,78.6,28.7,28.41,South,173,0.0,0.0,16,0.00,,,0.00,VWS V14.00,2013-01-29 18:05:00,
2013-01-29 12:06:00,78.1,28.3,28.41,South,185,0.0,0.0,16,0.00,,,0.00,VWS V14.00,2013-01-29 18:06:00,
2013-01-29 12:08:00,78.3,28.4,28.41,SE,128,0.0,0.0,16,0.00,,,0.00,VWS V14.00,2013-01-29 18:08:00,
2013-01-29 12:10:00,79.5,27.9,28.41,SSW,194,0.0,0.0,15,0.00,,,0.00,VWS V14.00,2013-01-29 18:10:00,
2013-01-29 12:11:00,79.9,28.1,28.41,South,187,0.0,0.0,15,0.00,,,0.00,VWS V14.00,2013-01-29 18:11:00,
2013-01-29 12:13:00,80.2,28.4,28.41,South,182,0.0,0.0,15,0.00,,,0.00,VWS V14.00,2013-01-29 18:13:00,
2013-01-29 12:15:00,78.6,28.7,28.41,South,170,0.0,0.0,16,0.00,,,0.00,VWS V14.00,2013-01-29 18:15:00,
2013-01-29 12:16:00,78.8,27.3,28.41,South,173,0.0,0.0,15,0.00,,,0.00,VWS V14.00,2013-01-29 18:16:00,
2013-01-29 12:18:00,79.7,28.0,28.38,SSE,155,0.0,0.0,15,0.00,,,0.00,VWS V14.00,2013-01-29 18:18:00,
2013-01-29 12:20:00,81.0,29.0,28.38,SSW,209,0.0,0.0,15,0.00,,,0.00,VWS V14.00,2013-01-29 18:20:00,
2013-01-29 12:22:00,81.3,29.3,28.38,South,177,0.0,0.0,15,0.00,,,0.00,VWS V14.00,2013-01-29 18:22:00,
2013-01-29 12:24:00,80.4,28.6,28.38,South,173,0.0,0.0,15,0.00,,,0.00,VWS V14.00,2013-01-29 18:24:00,
2013-01-29 12:26:00,79.2,27.6,28.38,South,179,0.0,0.0,15,0.00,,,0.00,VWS V14.00,2013-01-29 18:26:00,
2013-01-29 12:27:00,79.7,28.0,28.38,SSE,164,0.0,0.0,15,0.00,,,0.00,VWS V14.00,2013-01-29 18:27:00,
2013-01-29 12:28:00,79.7,28.0,28.38,South,178,0.0,0.0,15,0.00,,,0.00,VWS V14.00,2013-01-29 18:28:00,
2013-01-29 12:30:00,79.5,27.9,28.38,South,173,0.0,0.0,15,0.00,,,0.00,VWS V14.00,2013-01-29 18:30:00,
2013-01-29 12:31:00,79.5,27.9,28.38,South,173,0.0,0.0,15,0.00,,,0.00,VWS V14.00,2013-01-29 18:31:00,
2013-01-29 12:32:00,79.0,27.4,28.38,SSE,164,0.0,0.0,15,0.00,,,0.00,VWS V14.00,2013-01-29 18:32:00,
2013-01-29 12:33:00,79.0,27.4,28.38,SSE,164,0.0,0.0,15,0.00,,,0.00,VWS V14.00,2013-01-29 18:33:00,
2013-01-29 12:37:00,81.9,29.7,28.38,South,181,0.0,0.0,15,0.00,,,0.00,VWS V14.00,2013-01-29 18:37:00,
2013-01-29 12:38:00,80.4,28.6,28.38,SSE,164,0.0,0.0,15,0.00,,,0.00,VWS V14.00,2013-01-29 18:38:00,
2013-01-29 12:42:00,82.2,30.0,28.38,SSE,164,0.0,0.0,15,0.00,,,0.00,VWS V14.00,2013-01-29 18:42:00,
2013-01-29 12:43:00,82.2,30.0,28.38,SSE,164,0.0,0.0,15,0.00,,,0.00,VWS V14.00,2013-01-29 18:43:00,
2013-01-29 12:47:00,81.1,29.1,28.38,SSW,196,0.0,0.0,15,0.00,,,0.00,VWS V14.00,2013-01-29 18:47:00,
2013-01-29 12:48:00,81.1,29.1,28.38,SSE,168,0.0,0.0,15,0.00,,,0.00,VWS V14.00,2013-01-29 18:48:00,
2013-01-29 12:49:00,80.6,28.7,28.38,SSW,208,0.0,0.0,15,0.00,,,0.00,VWS V14.00,2013-01-29 18:49:00,
2013-01-29 12:53:00,81.3,29.3,28.38,SSW,204,0.0,0.0,15,0.00,,,0.00,VWS V14.00,2013-01-29 18:53:00,
2013-01-29 12:54:00,80.8,28.9,28.38,South,183,0.0,0.0,15,0.00,,,0.00,VWS V14.00,2013-01-29 18:54:00,
2013-01-29 12:55:00,80.8,28.9,28.38,South,183,0.0,0.0,15,0.00,,,0.00,VWS V14.00,2013-01-29 18:55:00,
2013-01-29 12:56:00,81.5,29.4,28.38,SSE,164,0.0,0.0,15,0.00,,,0.00,VWS V14.00,2013-01-29 18:56:00,
2013-01-29 12:58:00,81.5,29.4,28.38,South,170,0.0,0.0,15,0.00,,,0.00,VWS V14.00,2013-01-29 18:58:00,
2013-01-29 13:00:00,80.8,28.9,28.38,South,179,0.0,0.0,15,0.00,,,0.00,VWS V14.00,2013-01-29 19:00:00,
2013-01-29 13:01:00,80.8,28.9,28.38,South,179,0.0,0.0,15,0.00,,,0.00,VWS V14.00,2013-01-29 19:01:00,
2013-01-29 13:03:00,80.8,28.9,28.38,South,179,0.0,0.0,15,0.00,,,0.00,VWS V14.00,2013-01-29 19:03:00,
2013-01-29 13:05:00,79.3,27.7,28.35,South,176,0.0,0.0,15,0.00,,,0.00,VWS V14.00,2013-01-29 19:05:00,
2013-01-29 13:06:00,79.0,27.4,28.35,South,184,0.0,0.0,15,0.00,,,0.00,VWS V14.00,2013-01-29 19:06:00,
2013-01-29 13:08:00,79.0,27.4,28.35,South,172,0.0,0.0,15,0.00,,,0.00,VWS V14.00,2013-01-29 19:08:00,
2013-01-29 13:09:00,79.0,27.4,28.35,South,172,0.0,0.0,15,0.00,,,0.00,VWS V14.00,2013-01-29 19:09:00,
2013-01-29 13:11:00,79.2,27.6,28.35,SSW,198,0.0,0.0,15,0.00,,,0.00,VWS V14.00,2013-01-29 19:11:00,
2013-01-29 13:13:00,79.5,27.9,28.35,SSW,200,0.0,0.0,15,0.00,,,0.00,VWS V14.00,2013-01-29 19:13:00,
2013-01-29 13:14:00,79.7,28.0,28.35,SSW,200,0.0,0.0,15,0.00,,,0.00,VWS V14.00,2013-01-29 19:14:00,
2013-01-29 13:16:00,79.3,27.7,28.35,South,169,0.0,0.0,15,0.00,,,0.00,VWS V14.00,2013-01-29 19:16:00,
2013-01-29 13:17:00,79.3,27.7,28.35,South,169,0.0,0.0,15,0.00,,,0.00,VWS V14.00,2013-01-29 19:17:00,
2013-01-29 13:19:00,79.5,27.9,28.35,South,172,0.0,0.0,15,0.00,,,0.00,VWS V14.00,2013-01-29 19:19:00,
2013-01-29 13:20:00,78.8,27.3,28.35,SSW,205,0.0,0.0,15,0.00,,,0.00,VWS V14.00,2013-01-29 19:20:00,
2013-01-29 13:21:00,78.8,27.3,28.35,SSW,205,0.0,0.0,15,0.00,,,0.00,VWS V14.00,2013-01-29 19:21:00,
2013-01-29 13:23:00,81.5,29.4,28.35,SSW,198,0.0,0.0,15,0.00,,,0.00,VWS V14.00,2013-01-29 19:23:00,
2013-01-29 13:24:00,82.4,28.5,28.35,SSE,162,0.0,0.0,14,0.00,,,0.00,VWS V14.00,2013-01-29 19:24:00,
2013-01-29 13:25:00,82.9,28.9,28.35,South,176,0.0,0.0,14,0.00,,,0.00,VWS V14.00,2013-01-29 19:25:00,
2013-01-29 13:27:00,83.1,29.0,28.35,South,172,0.0,0.0,14,0.00,,,0.00,VWS V14.00,2013-01-29 19:27:00,
2013-01-29 13:29:00,83.1,29.0,28.35,South,187,0.0,0.0,14,0.00,,,0.00,VWS V14.00,2013-01-29 19:29:00,
2013-01-29 13:30:00,82.4,28.5,28.35,SW,221,0.0,0.0,14,0.00,,,0.00,VWS V14.00,2013-01-29 19:30:00,
2013-01-29 13:31:00,82.4,28.5,28.35,SW,221,0.0,0.0,14,0.00,,,0.00,VWS V14.00,2013-01-29 19:31:00,
2013-01-29 13:33:00,80.2,28.4,28.35,South,176,0.0,0.0,15,0.00,,,0.00,VWS V14.00,2013-01-29 19:33:00,
2013-01-29 13:34:00,79.9,28.1,28.35,South,174,0.0,0.0,15,0.00,,,0.00,VWS V14.00,2013-01-29 19:34:00,
2013-01-29 13:36:00,79.9,28.1,28.35,South,182,0.0,0.0,15,0.00,,,0.00,VWS V14.00,2013-01-29 19:36:00,
2013-01-29 13:38:00,79.0,27.4,28.35,South,180,0.0,0.0,15,0.00,,,0.00,VWS V14.00,2013-01-29 19:38:00,
2013-01-29 13:39:00,79.0,27.4,28.35,South,180,0.0,0.0,15,0.00,,,0.00,VWS V14.00,2013-01-29 19:39:00,
2013-01-29 13:40:00,79.2,27.6,28.35,South,191,0.0,0.0,15,0.00,,,0.00,VWS V14.00,2013-01-29 19:40:00,
2013-01-29 13:42:00,79.0,27.4,28.35,South,170,0.0,0.0,15,0.00,,,0.00,VWS V14.00,2013-01-29 19:42:00,
2013-01-29 13:44:00,78.6,28.7,28.35,South,183,0.0,0.0,16,0.00,,,0.00,VWS V14.00,2013-01-29 19:44:00,
2013-01-29 13:45:00,78.6,28.7,28.35,South,183,0.0,0.0,16,0.00,,,0.00,VWS V14.00,2013-01-29 19:45:00,
2013-01-29 13:47:00,78.6,28.7,28.35,South,179,0.0,0.0,16,0.00,,,0.00,VWS V14.00,2013-01-29 19:47:00,
2013-01-29 13:49:00,79.2,27.6,28.35,SSE,165,0.0,0.0,15,0.00,,,0.00,VWS V14.00,2013-01-29 19:49:00,
2013-01-29 13:50:00,79.3,27.7,28.35,South,176,0.0,0.0,15,0.00,,,0.00,VWS V14.00,2013-01-29 19:50:00,
2013-01-29 13:51:00,79.3,27.7,28.35,South,176,0.0,0.0,15,0.00,,,0.00,VWS V14.00,2013-01-29 19:51:00,
2013-01-29 13:53:00,80.1,28.3,28.35,South,172,0.0,0.0,15,0.00,,,0.00,VWS V14.00,2013-01-29 19:53:00,
2013-01-29 13:55:00,81.0,29.0,28.35,South,177,0.0,0.0,15,0.00,,,0.00,VWS V14.00,2013-01-29 19:55:00,
2013-01-29 13:56:00,81.1,29.1,28.35,SSW,210,0.0,0.0,15,0.00,,,0.00,VWS V14.00,2013-01-29 19:56:00,
2013-01-29 13:59:00,81.5,29.4,28.35,South,175,0.0,0.0,15,0.00,,,0.00,VWS V14.00,2013-01-29 19:59:00,
2013-01-29 14:01:00,81.0,29.0,28.35,South,191,0.0,0.0,15,0.00,,,0.00,VWS V14.00,2013-01-29 20:01:00,
2013-01-29 14:02:00,81.0,29.0,28.35,South,191,0.0,0.0,15,0.00,,,0.00,VWS V14.00,2013-01-29 20:02:00,
2013-01-29 14:05:00,80.4,28.6,28.35,SSE,161,0.0,0.0,15,0.00,,,0.00,VWS V14.00,2013-01-29 20:05:00,
2013-01-29 14:06:00,80.4,28.6,28.35,SSE,156,0.0,0.0,15,0.00,,,0.00,VWS V14.00,2013-01-29 20:06:00,
2013-01-29 14:08:00,80.2,28.4,28.35,SSW,207,0.0,0.0,15,0.00,,,0.00,VWS V14.00,2013-01-29 20:08:00,
2013-01-29 14:11:00,81.0,29.0,28.35,SSW,195,0.0,0.0,15,0.00,,,0.00,VWS V14.00,2013-01-29 20:11:00,
2013-01-29 14:12:00,81.3,29.3,28.35,SSW,204,0.0,0.0,15,0.00,,,0.00,VWS V14.00,2013-01-29 20:12:00,
2013-01-29 14:14:00,80.8,28.9,28.35,SSW,202,0.0,0.0,15,0.00,,,0.00,VWS V14.00,2013-01-29 20:14:00,
2013-01-29 14:15:00,80.8,28.9,28.35,SSW,202,0.0,0.0,15,0.00,,,0.00,VWS V14.00,2013-01-29 20:15:00,
2013-01-29 14:16:00,80.8,28.9,28.35,SSW,197,0.0,0.0,15,0.00,,,0.00,VWS V14.00,2013-01-29 20:16:00,
2013-01-29 14:17:00,80.2,28.4,28.32,SSW,203,0.0,0.0,15,0.00,,,0.00,VWS V14.00,2013-01-29 20:17:00,
2013-01-29 14:19:00,80.4,28.6,28.32,SSW,202,0.0,0.0,15,0.00,,,0.00,VWS V14.00,2013-01-29 20:19:00,
2013-01-29 14:20:00,80.2,28.4,28.32,West,265,0.0,0.0,15,0.00,,,0.00,VWS V14.00,2013-01-29 20:20:00,
2013-01-29 14:23:00,80.2,28.4,28.32,SSW,209,0.0,0.0,15,0.00,,,0.00,VWS V14.00,2013-01-29 20:23:00,
2013-01-29 14:25:00,79.7,28.0,28.32,SW,216,0.0,0.0,15,0.00,,,0.00,VWS V14.00,2013-01-29 20:25:00,
2013-01-29 14:26:00,79.7,28.0,28.32,South,190,0.0,0.0,15,0.00,,,0.00,VWS V14.00,2013-01-29 20:26:00,
2013-01-29 14:28:00,79.7,28.0,28.32,SSW,207,0.0,0.0,15,0.00,,,0.00,VWS V14.00,2013-01-29 20:28:00,
2013-01-29 14:31:00,80.2,28.4,28.32,SSW,197,0.0,0.0,15,0.00,,,0.00,VWS V14.00,2013-01-29 20:31:00,
2013-01-29 14:33:00,80.4,28.6,28.32,South,177,0.0,0.0,15,0.00,,,0.00,VWS V14.00,2013-01-29 20:33:00,
2013-01-29 14:36:00,80.8,28.9,28.32,SSE,162,0.0,0.0,15,0.00,,,0.00,VWS V14.00,2013-01-29 20:36:00,
2013-01-29 14:37:00,80.8,28.9,28.32,SSE,162,0.0,0.0,15,0.00,,,0.00,VWS V14.00,2013-01-29 20:37:00,
2013-01-29 14:39:00,79.9,28.1,28.32,South,180,0.0,0.0,15,0.00,,,0.00,VWS V14.00,2013-01-29 20:39:00,
2013-01-29 14:42:00,81.1,29.1,28.32,SSE,152,0.0,0.0,15,0.00,,,0.00,VWS V14.00,2013-01-29 20:42:00,
2013-01-29 14:43:00,81.1,29.1,28.32,SSE,152,0.0,0.0,15,0.00,,,0.00,VWS V14.00,2013-01-29 20:43:00,
2013-01-29 14:44:00,81.5,29.4,28.32,SSE,153,0.0,0.0,15,0.00,,,0.00,VWS V14.00,2013-01-29 20:44:00,
2013-01-29 14:47:00,82.6,28.6,28.32,South,171,0.0,0.0,14,0.00,,,0.00,VWS V14.00,2013-01-29 20:47:00,
2013-01-29 14:48:00,82.6,28.6,28.32,South,171,0.0,0.0,14,0.00,,,0.00,VWS V14.00,2013-01-29 20:48:00,
2013-01-29 14:49:00,82.8,28.8,28.32,South,182,0.0,0.0,14,0.00,,,0.00,VWS V14.00,2013-01-29 20:49:00,
2013-01-29 14:53:00,81.9,29.7,28.32,SSW,195,0.0,0.0,15,0.00,,,0.00,VWS V14.00,2013-01-29 20:53:00,
2013-01-29 14:55:00,81.9,29.7,28.32,SW,221,0.0,0.0,15,0.00,,,0.00,VWS V14.00,2013-01-29 20:55:00,
2013-01-29 14:58:00,81.3,29.3,28.32,South,186,0.0,0.0,15,0.00,,,0.00,VWS V14.00,2013-01-29 20:58:00,
2013-01-29 14:59:00,81.3,29.3,28.32,South,186,0.0,0.0,15,0.00,,,0.00,VWS V14.00,2013-01-29 20:59:00,
2013-01-29 15:02:00,82.4,28.5,28.32,South,185,0.0,0.0,14,0.00,,,0.00,VWS V14.00,2013-01-29 21:02:00,
2013-01-29 15:03:00,83.1,29.0,28.32,South,173,0.0,0.0,14,0.00,,,0.00,VWS V14.00,2013-01-29 21:03:00,
2013-01-29 15:04:00,83.3,29.2,28.32,SSW,200,0.0,0.0,14,0.00,,,0.00,VWS V14.00,2013-01-29 21:04:00,
2013-01-29 15:05:00,83.3,29.2,28.32,SSW,200,0.0,0.0,14,0.00,,,0.00,VWS V14.00,2013-01-29 21:05:00,
2013-01-29 15:07:00,85.8,31.2,28.32,SSW,203,0.0,0.0,14,0.00,,,0.00,VWS V14.00,2013-01-29 21:07:00,
2013-01-29 15:09:00,84.9,30.5,28.32,South,170,0.0,0.0,14,0.00,,,0.00,VWS V14.00,2013-01-29 21:09:00,
2013-01-29 15:10:00,84.7,30.3,28.32,South,176,0.0,0.0,14,0.00,,,0.00,VWS V14.00,2013-01-29 21:10:00,
2013-01-29 15:13:00,86.2,31.5,28.32,SSW,203,0.0,0.0,14,0.00,,,0.00,VWS V14.00,2013-01-29 21:13:00,
2013-01-29 15:15:00,84.2,29.9,28.32,SSW,203,0.0,0.0,14,0.00,,,0.00,VWS V14.00,2013-01-29 21:15:00,
2013-01-29 15:18:00,83.3,29.2,28.35,SSE,148,0.0,0.0,14,0.00,,,0.00,VWS V14.00,2013-01-29 21:18:00,
2013-01-29 15:20:00,78.1,28.3,28.35,WNW,294,0.0,0.0,16,0.00,,,0.00,VWS V14.00,2013-01-29 21:20:00,
2013-01-29 15:23:00,73.4,24.5,28.35,NW,319,0.0,0.0,16,0.00,,,0.00,VWS V14.00,2013-01-29 21:23:00,
2013-01-29 15:26:00,72.3,25.1,28.35,NW,322,0.0,0.0,17,0.00,,,0.00,VWS V14.00,2013-01-29 21:26:00,
2013-01-29 15:28:00,72.1,25.0,28.35,WNW,303,0.0,0.0,17,0.00,,,0.00,VWS V14.00,2013-01-29 21:28:00,
2013-01-29 15:30:00,72.0,24.8,28.35,WNW,294,0.0,0.0,17,0.00,,,0.00,VWS V14.00,2013-01-29 21:30:00,
2013-01-29 15:31:00,72.0,24.8,28.35,WNW,294,0.0,0.0,17,0.00,,,0.00,VWS V14.00,2013-01-29 21:31:00,
2013-01-29 15:33:00,71.4,24.4,28.38,WNW,286,0.0,0.0,17,0.00,,,0.00,VWS V14.00,2013-01-29 21:33:00,
2013-01-29 15:35:00,71.4,24.4,28.38,NW,325,0.0,0.0,17,0.00,,,0.00,VWS V14.00,2013-01-29 21:35:00,
2013-01-29 15:36:00,71.4,24.4,28.38,WNW,290,0.0,0.0,17,0.00,,,0.00,VWS V14.00,2013-01-29 21:36:00,
2013-01-29 15:37:00,71.4,24.4,28.38,WNW,290,0.0,0.0,17,0.00,,,0.00,VWS V14.00,2013-01-29 21:37:00,
2013-01-29 15:38:00,70.9,23.9,28.38,NNW,331,0.0,0.0,17,0.00,,,0.00,VWS V14.00,2013-01-29 21:38:00,
2013-01-29 15:40:00,70.7,23.8,28.38,West,274,0.0,0.0,17,0.00,,,0.00,VWS V14.00,2013-01-29 21:40:00,
2013-01-29 15:42:00,70.7,23.8,28.38,NW,322,0.0,0.0,17,0.00,,,0.00,VWS V14.00,2013-01-29 21:42:00,
2013-01-29 15:43:00,70.7,23.8,28.38,NW,322,0.0,0.0,17,0.00,,,0.00,VWS V14.00,2013-01-29 21:43:00,
2013-01-29 15:44:00,70.9,23.9,28.38,WNW,297,0.0,0.0,17,0.00,,,0.00,VWS V14.00,2013-01-29 21:44:00,
2013-01-29 15:46:00,71.2,24.2,28.38,WNW,294,0.0,0.0,17,0.00,,,0.00,VWS V14.00,2013-01-29 21:46:00,
2013-01-29 15:47:00,71.2,24.2,28.38,WNW,294,0.0,0.0,17,0.00,,,0.00,VWS V14.00,2013-01-29 21:47:00,
2013-01-29 15:48:00,70.9,23.9,28.38,NW,304,0.0,0.0,17,0.00,,,0.00,VWS V14.00,2013-01-29 21:48:00,
2013-01-29 15:50:00,71.1,24.1,28.38,WNW,300,0.0,0.0,17,0.00,,,0.00,VWS V14.00,2013-01-29 21:50:00,
2013-01-29 15:51:00,70.9,23.9,28.38,West,277,0.0,0.0,17,0.00,,,0.00,VWS V14.00,2013-01-29 21:51:00,
2013-01-29 15:53:00,70.9,23.9,28.38,NW,326,0.0,0.0,17,0.00,,,0.00,VWS V14.00,2013-01-29 21:53:00,
2013-01-29 15:54:00,70.9,23.9,28.38,NNW,335,0.0,0.0,17,0.00,,,0.00,VWS V14.00,2013-01-29 21:54:00,
2013-01-29 15:55:00,70.9,23.9,28.38,NNW,335,0.0,0.0,17,0.00,,,0.00,VWS V14.00,2013-01-29 21:55:00,
2013-01-29 15:57:00,70.7,23.8,28.38,NW,313,0.0,0.0,17,0.00,,,0.00,VWS V14.00,2013-01-29 21:57:00,
2013-01-29 15:59:00,70.3,23.5,28.38,West,278,0.0,0.0,17,0.00,,,0.00,VWS V14.00,2013-01-29 21:59:00,
2013-01-29 16:00:00,70.3,23.5,28.38,NW,324,0.0,0.0,17,0.00,,,0.00,VWS V14.00,2013-01-29 22:00:00,
2013-01-29 16:01:00,70.3,23.5,28.38,NW,324,0.0,0.0,17,0.00,,,0.00,VWS V14.00,2013-01-29 22:01:00,
2013-01-29 16:03:00,70.0,23.2,28.38,WNW,299,0.0,0.0,17,0.00,,,0.00,VWS V14.00,2013-01-29 22:03:00,
2013-01-29 16:05:00,69.8,23.1,28.38,WNW,299,0.0,0.0,17,0.00,,,0.00,VWS V14.00,2013-01-29 22:05:00,
2013-01-29 16:06:00,69.8,23.1,28.38,West,281,0.0,0.0,17,0.00,,,0.00,VWS V14.00,2013-01-29 22:06:00,
2013-01-29 16:09:00,69.6,24.3,28.38,West,272,0.0,0.0,18,0.00,,,0.00,VWS V14.00,2013-01-29 22:09:00,
2013-01-29 16:11:00,69.4,24.1,28.38,WNW,286,0.0,0.0,18,0.00,,,0.00,VWS V14.00,2013-01-29 22:11:00,
2013-01-29 16:12:00,69.4,24.1,28.38,NW,320,0.0,0.0,18,0.00,,,0.00,VWS V14.00,2013-01-29 22:12:00,
2013-01-29 16:15:00,69.1,23.8,28.38,NW,313,0.0,0.0,18,0.00,,,0.00,VWS V14.00,2013-01-29 22:15:00,
2013-01-29 16:17:00,68.9,23.7,28.38,WNW,301,0.0,0.0,18,0.00,,,0.00,VWS V14.00,2013-01-29 22:17:00,
2013-01-29 16:25:00,67.1,22.2,28.38,SW,231,0.0,0.0,18,0.00,,,0.00,VWS V14.00,2013-01-29 22:25:00,
2013-01-29 16:28:00,66.2,21.5,28.38,NW,311,0.0,0.0,18,0.00,,,0.00,VWS V14.00,2013-01-29 22:28:00,
2013-01-29 16:42:00,64.2,21.1,28.41,NNE,28,0.0,0.0,19,0.00,,,0.00,VWS V14.00,2013-01-29 22:42:00,
2013-01-29 16:43:00,64.2,21.1,28.41,NNE,28,0.0,0.0,19,0.00,,,0.00,VWS V14.00,2013-01-29 22:43:00,
2013-01-29 17:38:00,62.8,19.9,28.44,WNW,290,7.6,15.4,19,0.00,,,0.00,VWS V14.00,2013-01-29 23:38:00,
2013-01-29 17:39:00,62.8,19.9,28.44,WNW,290,7.6,15.4,19,0.00,,,0.00,VWS V14.00,2013-01-29 23:39:00,
2013-01-29 17:44:00,62.2,19.5,28.44,WNW,286,8.3,15.4,19,0.00,,,0.00,VWS V14.00,2013-01-29 23:44:00,
2013-01-29 17:45:00,62.2,19.5,28.44,WNW,286,8.3,15.4,19,0.00,,,0.00,VWS V14.00,2013-01-29 23:45:00,
2013-01-29 17:50:00,62.2,19.5,28.44,NW,308,8.1,10.1,19,0.00,,,0.00,VWS V14.00,2013-01-29 23:50:00,
2013-01-29 17:51:00,62.2,19.5,28.44,NW,308,8.1,10.1,19,0.00,,,0.00,VWS V14.00,2013-01-29 23:51:00,
2013-01-29 17:55:00,62.4,19.6,28.44,WNW,300,5.4,10.1,19,0.00,,,0.00,VWS V14.00,2013-01-29 23:55:00,
2013-01-29 17:56:00,62.4,19.6,28.44,North,357,8.7,10.1,19,0.00,,,0.00,VWS V14.00,2013-01-29 23:56:00,
2013-01-29 17:57:00,62.4,19.6,28.44,North,357,8.7,10.1,19,0.00,,,0.00,VWS V14.00,2013-01-29 23:57:00,
2013-01-29 18:02:00,63.0,20.1,28.44,NNW,328,5.8,10.1,19,0.00,,,0.00,VWS V14.00,2013-01-30 00:02:00,
2013-01-29 18:07:00,62.6,19.8,28.44,NW,310,5.8,10.1,19,0.00,,,0.00,VWS V14.00,2013-01-30 00:07:00,
2013-01-29 18:08:00,62.8,19.9,28.44,NW,304,8.7,10.1,19,0.00,,,0.00,VWS V14.00,2013-01-30 00:08:00,
2013-01-29 18:12:00,63.0,20.1,28.44,WNW,299,8.1,11.0,19,0.00,,,0.00,VWS V14.00,2013-01-30 00:12:00,
2013-01-29 18:13:00,63.0,20.1,28.44,WNW,299,8.1,11.0,19,0.00,,,0.00,VWS V14.00,2013-01-30 00:13:00,
2013-01-29 18:14:00,63.0,20.1,28.44,NW,309,5.8,11.0,19,0.00,,,0.00,VWS V14.00,2013-01-30 00:14:00,
2013-01-29 18:18:00,62.8,19.9,28.44,WNW,284,5.8,11.0,19,0.00,,,0.00,VWS V14.00,2013-01-30 00:18:00,
2013-01-29 18:19:00,63.0,20.1,28.44,NW,316,8.1,11.0,19,0.00,,,0.00,VWS V14.00,2013-01-30 00:19:00,
2013-01-29 18:23:00,62.6,19.8,28.44,NNW,343,5.8,11.0,19,0.00,,,0.00,VWS V14.00,2013-01-30 00:23:00,
2013-01-29 18:25:00,62.6,19.8,28.44,North,3,3.6,11.0,19,0.00,,,0.00,VWS V14.00,2013-01-30 00:25:00,
2013-01-29 18:28:00,62.2,19.5,28.44,WNW,297,8.3,11.0,19,0.00,,,0.00,VWS V14.00,2013-01-30 00:28:00,
2013-01-29 18:29:00,62.2,19.5,28.44,WNW,297,8.3,11.0,19,0.00,,,0.00,VWS V14.00,2013-01-30 00:29:00,
2013-01-29 18:30:00,62.2,19.5,28.44,NW,311,0.0,11.0,19,0.00,,,0.00,VWS V14.00,2013-01-30 00:30:00,
2013-01-29 18:34:00,61.9,19.2,28.44,NNW,329,0.0,0.0,19,0.00,,,0.00,VWS V14.00,2013-01-30 00:34:00,
2013-01-29 18:35:00,61.9,19.2,28.44,NNW,329,0.0,0.0,19,0.00,,,0.00,VWS V14.00,2013-01-30 00:35:00,
2013-01-29 18:36:00,61.5,18.9,28.44,NNW,344,0.0,0.0,19,0.00,,,0.00,VWS V14.00,2013-01-30 00:36:00,
2013-01-29 18:39:00,61.3,18.8,28.44,WNW,300,0.0,0.0,19,0.00,,,0.00,VWS V14.00,2013-01-30 00:39:00,
2013-01-29 18:40:00,61.0,18.5,28.44,NNW,338,0.0,0.0,19,0.00,,,0.00,VWS V14.00,2013-01-30 00:40:00,
2013-01-29 18:41:00,61.0,18.5,28.44,NNW,338,0.0,0.0,19,0.00,,,0.00,VWS V14.00,2013-01-30 00:41:00,
2013-01-29 18:44:00,60.6,19.4,28.44,North,3,0.0,0.0,20,0.00,,,0.00,VWS V14.00,2013-01-30 00:44:00,
2013-01-29 18:46:00,60.6,19.4,28.44,NW,325,0.0,0.0,20,0.00,,,0.00,VWS V14.00,2013-01-30 00:46:00,
2013-01-29 18:50:00,60.6,19.4,28.44,NNW,332,0.0,0.0,20,0.00,,,0.00,VWS V14.00,2013-01-30 00:50:00,
2013-01-29 18:51:00,60.6,19.4,28.44,NNW,332,0.0,0.0,20,0.00,,,0.00,VWS V14.00,2013-01-30 00:51:00,
2013-01-29 18:53:00,60.6,19.4,28.44,NW,306,0.0,0.0,20,0.00,,,0.00,VWS V14.00,2013-01-30 00:53:00,
2013-01-29 18:56:00,60.4,19.2,28.44,NW,312,0.0,0.0,20,0.00,,,0.00,VWS V14.00,2013-01-30 00:56:00,
2013-01-29 18:58:00,60.3,19.0,28.44,NNW,338,0.0,0.0,20,0.00,,,0.00,VWS V14.00,2013-01-30 00:58:00,
2013-01-29 19:01:00,60.3,19.0,28.44,NW,312,0.0,0.0,20,0.00,,,0.00,VWS V14.00,2013-01-30 01:01:00,
2013-01-29 19:02:00,60.3,19.0,28.44,NW,312,0.0,0.0,20,0.00,,,0.00,VWS V14.00,2013-01-30 01:02:00,
2013-01-29 19:03:00,60.1,18.9,28.44,NW,314,0.0,0.0,20,0.00,,,0.00,VWS V14.00,2013-01-30 01:03:00,
2013-01-29 19:06:00,60.1,18.9,28.44,NW,312,0.0,0.0,20,0.00,,,0.00,VWS V14.00,2013-01-30 01:06:00,
2013-01-29 19:07:00,60.1,18.9,28.44,WNW,296,0.0,0.0,20,0.00,,,0.00,VWS V14.00,2013-01-30 01:07:00,
2013-01-29 19:09:00,60.1,18.9,28.44,WNW,296,0.0,0.0,20,0.00,,,0.00,VWS V14.00,2013-01-30 01:09:00,
2013-01-29 19:10:00,60.3,19.0,28.44,WNW,283,0.0,0.0,20,0.00,,,0.00,VWS V14.00,2013-01-30 01:10:00,
2013-01-29 19:12:00,60.3,19.0,28.44,West,277,0.0,0.0,20,0.00,,,0.00,VWS V14.00,2013-01-30 01:12:00,
2013-01-29 19:15:00,60.1,18.9,28.44,NW,308,0.0,0.0,20,0.00,,,0.00,VWS V14.00,2013-01-30 01:15:00,
2013-01-29 19:17:00,59.9,18.8,28.47,WNW,296,0.0,0.0,20,0.00,,,0.00,VWS V14.00,2013-01-30 01:17:00,
2013-01-29 19:18:00,59.9,18.8,28.47,NW,309,0.0,0.0,20,0.00,,,0.00,VWS V14.00,2013-01-30 01:18:00,
2013-01-29 19:20:00,59.7,18.6,28.47,WNW,285,0.0,0.0,20,0.00,,,0.00,VWS V14.00,2013-01-30 01:20:00,
2013-01-29 19:22:00,60.3,19.0,28.47,NW,320,0.0,0.0,20,0.00,,,0.00,VWS V14.00,2013-01-30 01:22:00,
2013-01-29 19:23:00,60.6,19.4,28.47,NW,304,0.0,0.0,20,0.00,,,0.00,VWS V14.00,2013-01-30 01:23:00,
2013-01-29 19:26:00,60.6,19.4,28.47,NW,306,0.0,0.0,20,0.00,,,0.00,VWS V14.00,2013-01-30 01:26:00,
2013-01-29 19:27:00,60.4,19.2,28.47,WNW,291,0.0,0.0,20,0.00,,,0.00,VWS V14.00,2013-01-30 01:27:00,
2013-01-29 19:28:00,60.4,19.2,28.47,WNW,302,0.0,0.0,20,0.00,,,0.00,VWS V14.00,2013-01-30 01:28:00,
2013-01-29 19:30:00,60.1,18.9,28.47,WNW,297,0.0,0.0,20,0.00,,,0.00,VWS V14.00,2013-01-30 01:30:00,
2013-01-29 19:32:00,59.9,18.8,28.47,WNW,284,0.0,0.0,20,0.00,,,0.00,VWS V14.00,2013-01-30 01:32:00,
2013-01-29 19:33:00,59.9,18.8,28.47,WNW,284,0.0,0.0,20,0.00,,,0.00,VWS V14.00,2013-01-30 01:33:00,
2013-01-29 19:36:00,59.4,18.3,28.47,West,261,0.0,0.0,20,0.00,,,0.00,VWS V14.00,2013-01-30 01:36:00,
2013-01-29 19:37:00,59.4,18.3,28.47,West,261,0.0,0.0,20,0.00,,,0.00,VWS V14.00,2013-01-30 01:37:00,
2013-01-29 19:39:00,59.4,18.3,28.47,West,274,0.0,0.0,20,0.00,,,0.00,VWS V14.00,2013-01-30 01:39:00,
2013-01-29 19:41:00,59.9,18.8,28.47,WNW,287,0.0,0.0,20,0.00,,,0.00,VWS V14.00,2013-01-30 01:41:00,
2013-01-29 19:42:00,59.5,18.5,28.47,WNW,292,0.0,0.0,20,0.00,,,0.00,VWS V14.00,2013-01-30 01:42:00,
2013-01-29 19:44:00,59.7,18.6,28.47,NW,326,0.0,0.0,20,0.00,,,0.00,VWS V14.00,2013-01-30 01:44:00,
2013-01-29 19:45:00,59.7,18.6,28.47,WNW,300,0.0,0.0,20,0.00,,,0.00,VWS V14.00,2013-01-30 01:45:00,
2013-01-29 19:46:00,59.7,18.6,28.47,WNW,290,0.0,0.0,20,0.00,,,0.00,VWS V14.00,2013-01-30 01:46:00,
2013-01-29 19:47:00,59.5,17.3,28.47,WNW,282,0.0,0.0,19,0.00,,,0.00,VWS V14.00,2013-01-30 01:47:00,
2013-01-29 19:49:00,59.4,18.3,28.47,NW,324,0.0,0.0,20,0.00,,,0.00,VWS V14.00,2013-01-30 01:49:00,
2013-01-29 19:51:00,59.4,18.3,28.47,NW,304,0.0,0.0,20,0.00,,,0.00,VWS V14.00,2013-01-30 01:51:00,
2013-01-29 19:53:00,59.5,18.5,28.47,WNW,283,0.0,0.0,20,0.00,,,0.00,VWS V14.00,2013-01-30 01:53:00,
2013-01-29 19:54:00,59.7,18.6,28.47,West,270,0.0,0.0,20,0.00,,,0.00,VWS V14.00,2013-01-30 01:54:00,
2013-01-29 19:56:00,59.9,17.6,28.47,NW,306,0.0,0.0,19,0.00,,,0.00,VWS V14.00,2013-01-30 01:56:00,
2013-01-29 19:57:00,59.9,17.6,28.47,NW,306,0.0,0.0,19,0.00,,,0.00,VWS V14.00,2013-01-30 01:57:00,
2013-01-29 19:59:00,60.6,19.4,28.47,WNW,285,0.0,0.0,20,0.00,,,0.00,VWS V14.00,2013-01-30 01:59:00,
2013-01-29 20:01:00,60.6,19.4,28.47,NW,306,0.0,0.0,20,0.00,,,0.00,VWS V14.00,2013-01-30 02:01:00,
2013-01-29 20:02:00,60.6,19.4,28.47,NW,306,0.0,0.0,20,0.00,,,0.00,VWS V14.00,2013-01-30 02:02:00,
2013-01-29 20:03:00,60.6,19.4,28.47,WNW,298,0.0,0.0,20,0.00,,,0.00,VWS V14.00,2013-01-30 02:03:00,
2013-01-29 20:05:00,60.6,19.4,28.47,WNW,288,0.0,0.0,20,0.00,,,0.00,VWS V14.00,2013-01-30 02:05:00,
2013-01-29 20:06:00,60.6,19.4,28.47,NW,322,0.0,0.0,20,0.00,,,0.00,VWS V14.00,2013-01-30 02:06:00,
2013-01-29 20:07:00,60.6,19.4,28.47,NW,322,0.0,0.0,20,0.00,,,0.00,VWS V14.00,2013-01-30 02:07:00,
2013-01-29 20:08:00,60.3,19.0,28.47,NW,308,0.0,0.0,20,0.00,,,0.00,VWS V14.00,2013-01-30 02:08:00,
2013-01-29 20:10:00,60.1,18.9,28.47,NW,312,0.0,0.0,20,0.00,,,0.00,VWS V14.00,2013-01-30 02:10:00,
2013-01-29 20:12:00,60.3,17.9,28.47,NW,320,0.0,0.0,19,0.00,,,0.00,VWS V14.00,2013-01-30 02:12:00,
2013-01-29 20:13:00,60.3,17.9,28.47,NW,320,0.0,0.0,19,0.00,,,0.00,VWS V14.00,2013-01-30 02:13:00,
2013-01-29 20:14:00,60.3,17.9,28.47,NW,310,0.0,0.0,19,0.00,,,0.00,VWS V14.00,2013-01-30 02:14:00,
2013-01-29 20:16:00,60.4,19.2,28.47,NW,306,0.0,0.0,20,0.00,,,0.00,VWS V14.00,2013-01-30 02:16:00,
2013-01-29 20:18:00,60.3,17.9,28.47,NW,305,0.0,0.0,19,0.00,,,0.00,VWS V14.00,2013-01-30 02:18:00,
2013-01-29 20:19:00,60.1,17.7,28.47,WNW,300,0.0,0.0,19,0.00,,,0.00,VWS V14.00,2013-01-30 02:19:00,
2013-01-29 20:21:00,60.1,17.7,28.47,NW,313,0.0,0.0,19,0.00,,,0.00,VWS V14.00,2013-01-30 02:21:00,
2013-01-29 20:24:00,59.7,17.4,28.47,WNW,289,0.0,0.0,19,0.00,,,0.00,VWS V14.00,2013-01-30 02:24:00,
2013-01-29 20:25:00,59.7,17.4,28.47,WNW,289,0.0,0.0,19,0.00,,,0.00,VWS V14.00,2013-01-30 02:25:00,
2013-01-29 20:26:00,60.3,17.9,28.47,WNW,290,0.0,0.0,19,0.00,,,0.00,VWS V14.00,2013-01-30 02:26:00,
2013-01-29 20:29:00,60.4,19.2,28.47,WNW,292,0.0,0.0,20,0.00,,,0.00,VWS V14.00,2013-01-30 02:29:00,
2013-01-29 20:30:00,60.4,18.0,28.47,WNW,290,0.0,0.0,19,0.00,,,0.00,VWS V14.00,2013-01-30 02:30:00,
2013-01-29 20:31:00,60.4,18.0,28.47,WNW,290,0.0,0.0,19,0.00,,,0.00,VWS V14.00,2013-01-30 02:31:00,
2013-01-29 20:32:00,60.3,17.9,28.47,NW,306,0.0,0.0,19,0.00,,,0.00,VWS V14.00,2013-01-30 02:32:00,
2013-01-29 20:35:00,60.4,18.0,28.47,NW,304,0.0,0.0,19,0.00,,,0.00,VWS V14.00,2013-01-30 02:35:00,
2013-01-29 20:36:00,60.3,17.9,28.47,NW,305,0.0,0.0,19,0.00,,,0.00,VWS V14.00,2013-01-30 02:36:00,
2013-01-29 20:37:00,60.3,17.9,28.47,NW,305,0.0,0.0,19,0.00,,,0.00,VWS V14.00,2013-01-30 02:37:00,
2013-01-29 20:40:00,60.6,18.2,28.47,West,264,0.0,0.0,19,0.00,,,0.00,VWS V14.00,2013-01-30 02:40:00,
2013-01-29 20:42:00,60.3,17.9,28.47,NW,312,0.0,0.0,19,0.00,,,0.00,VWS V14.00,2013-01-30 02:42:00,
2013-01-29 20:43:00,60.3,17.9,28.47,NW,312,0.0,0.0,19,0.00,,,0.00,VWS V14.00,2013-01-30 02:43:00,
2013-01-29 20:46:00,59.9,17.6,28.47,NW,316,0.0,0.0,19,0.00,,,0.00,VWS V14.00,2013-01-30 02:46:00,
2013-01-29 20:47:00,59.9,17.6,28.50,NW,307,0.0,0.0,19,0.00,,,0.00,VWS V14.00,2013-01-30 02:47:00,
2013-01-29 20:48:00,60.1,17.7,28.50,WNW,283,0.0,0.0,19,0.00,,,0.00,VWS V14.00,2013-01-30 02:48:00,
2013-01-29 20:51:00,59.9,17.6,28.50,NW,313,0.0,0.0,19,0.00,,,0.00,VWS V14.00,2013-01-30 02:51:00,
2013-01-29 20:53:00,59.9,17.6,28.50,NW,323,0.0,0.0,19,0.00,,,0.00,VWS V14.00,2013-01-30 02:53:00,
2013-01-29 20:54:00,60.1,17.7,28.50,West,274,0.0,0.0,19,0.00,,,0.00,VWS V14.00,2013-01-30 02:54:00,
2013-01-29 20:57:00,59.9,17.6,28.50,WNW,302,0.0,0.0,19,0.00,,,0.00,VWS V14.00,2013-01-30 02:57:00,
2013-01-29 20:59:00,59.7,17.4,28.50,WNW,294,0.0,0.0,19,0.00,,,0.00,VWS V14.00,2013-01-30 02:59:00,
2013-01-29 21:00:00,59.7,17.4,28.50,NW,306,0.0,0.0,19,0.00,,,0.00,VWS V14.00,2013-01-30 03:00:00,
2013-01-29 21:04:00,59.7,17.4,28.50,NNW,338,0.0,0.0,19,0.00,,,0.00,VWS V14.00,2013-01-30 03:04:00,
2013-01-29 21:07:00,59.4,17.1,28.50,NNW,340,0.0,0.0,19,0.00,,,0.00,VWS V14.00,2013-01-30 03:07:00,
2013-01-29 21:09:00,59.4,17.1,28.50,WNW,293,0.0,0.0,19,0.00,,,0.00,VWS V14.00,2013-01-30 03:09:00,
2013-01-29 21:10:00,59.5,17.3,28.50,NW,306,0.0,0.0,19,0.00,,,0.00,VWS V14.00,2013-01-30 03:10:00,
2013-01-29 21:14:00,59.4,17.1,28.50,NNW,332,0.0,0.0,19,0.00,,,0.00,VWS V14.00,2013-01-30 03:14:00,
2013-01-29 21:15:00,59.4,17.1,28.50,NNW,332,0.0,0.0,19,0.00,,,0.00,VWS V14.00,2013-01-30 03:15:00,
2013-01-29 21:18:00,58.5,17.6,28.50,WNW,289,0.0,0.0,20,0.00,,,0.00,VWS V14.00,2013-01-30 03:18:00,
2013-01-29 21:20:00,58.5,17.6,28.50,NW,316,0.0,0.0,20,0.00,,,0.00,VWS V14.00,2013-01-30 03:20:00,
2013-01-29 21:24:00,58.3,17.4,28.50,WNW,303,0.0,0.0,20,0.00,,,0.00,VWS V14.00,2013-01-30 03:24:00,
2013-01-29 21:25:00,58.3,17.4,28.50,WNW,286,0.0,0.0,20,0.00,,,0.00,VWS V14.00,2013-01-30 03:25:00,
2013-01-29 21:26:00,58.3,17.4,28.50,NW,307,0.0,0.0,20,0.00,,,0.00,VWS V14.00,2013-01-30 03:26:00,
2013-01-29 21:30:00,58.5,17.6,28.50,West,275,0.0,0.0,20,0.00,,,0.00,VWS V14.00,2013-01-30 03:30:00,
2013-01-29 21:31:00,58.5,17.6,28.50,West,275,0.0,0.0,20,0.00,,,0.00,VWS V14.00,2013-01-30 03:31:00,
2013-01-29 21:36:00,58.3,17.4,28.50,West,276,0.0,0.0,20,0.00,,,0.00,VWS V14.00,2013-01-30 03:36:00,
2013-01-29 21:37:00,58.3,17.4,28.50,West,276,0.0,0.0,20,0.00,,,0.00,VWS V14.00,2013-01-30 03:37:00,
2013-01-29 21:41:00,58.1,17.3,28.50,WNW,294,0.0,0.0,20,0.00,,,0.00,VWS V14.00,2013-01-30 03:41:00,
2013-01-29 21:42:00,58.1,17.3,28.50,WNW,287,0.0,0.0,20,0.00,,,0.00,VWS V14.00,2013-01-30 03:42:00,
2013-01-29 21:46:00,57.7,17.0,28.50,NW,304,0.0,0.0,20,0.00,,,0.00,VWS V14.00,2013-01-30 03:46:00,
2013-01-29 21:47:00,57.7,17.0,28.50,NW,304,0.0,0.0,20,0.00,,,0.00,VWS V14.00,2013-01-30 03:47:00,
2013-01-29 21:52:00,57.4,16.7,28.50,NW,326,0.0,0.0,20,0.00,,,0.00,VWS V14.00,2013-01-30 03:52:00,
2013-01-29 21:55:00,57.6,16.8,28.50,NW,305,0.0,0.0,20,0.00,,,0.00,VWS V14.00,2013-01-30 03:55:00,
2013-01-29 21:57:00,57.4,16.7,28.50,WNW,289,0.0,0.0,20,0.00,,,0.00,VWS V14.00,2013-01-30 03:57:00,
2013-01-29 21:58:00,57.2,16.5,28.50,NW,304,0.0,0.0,20,0.00,,,0.00,VWS V14.00,2013-01-30 03:58:00,
2013-01-29 22:00:00,57.2,16.5,28.50,WNW,301,0.0,0.0,20,0.00,,,0.00,VWS V14.00,2013-01-30 04:00:00,
2013-01-29 22:02:00,57.4,16.7,28.50,West,278,0.0,0.0,20,0.00,,,0.00,VWS V14.00,2013-01-30 04:02:00,
2013-01-29 22:03:00,57.4,16.7,28.50,West,278,0.0,0.0,20,0.00,,,0.00,VWS V14.00,2013-01-30 04:03:00,
2013-01-29 22:06:00,57.2,16.5,28.50,WNW,288,0.0,0.0,20,0.00,,,0.00,VWS V14.00,2013-01-30 04:06:00,
2013-01-29 22:09:00,56.8,16.2,28.50,WNW,299,0.0,0.0,20,0.00,,,0.00,VWS V14.00,2013-01-30 04:09:00,
2013-01-29 22:10:00,56.8,16.2,28.50,NW,315,0.0,0.0,20,0.00,,,0.00,VWS V14.00,2013-01-30 04:10:00,
2013-01-29 22:12:00,57.2,16.5,28.50,NW,317,0.0,0.0,20,0.00,,,0.00,VWS V14.00,2013-01-30 04:12:00,
2013-01-29 22:14:00,57.2,16.5,28.50,WNW,298,0.0,0.0,20,0.00,,,0.00,VWS V14.00,2013-01-30 04:14:00,
2013-01-29 22:15:00,57.2,16.5,28.50,WNW,298,0.0,0.0,20,0.00,,,0.00,VWS V14.00,2013-01-30 04:15:00,
2013-01-29 22:17:00,57.0,16.4,28.53,WNW,299,0.0,0.0,20,0.00,,,0.00,VWS V14.00,2013-01-30 04:17:00,
2013-01-29 22:19:00,57.0,16.4,28.53,SW,236,0.0,0.0,20,0.00,,,0.00,VWS V14.00,2013-01-30 04:19:00,
2013-01-29 22:20:00,57.0,16.4,28.53,NW,320,0.0,0.0,20,0.00,,,0.00,VWS V14.00,2013-01-30 04:20:00,
2013-01-29 22:21:00,57.0,16.4,28.53,WNW,292,14.5,14.5,20,0.00,,,0.00,VWS V14.00,2013-01-30 04:21:00,
2013-01-29 22:22:00,57.0,16.4,28.53,WNW,300,15.4,15.4,20,0.00,,,0.00,VWS V14.00,2013-01-30 04:22:00,
2013-01-29 22:25:00,56.8,16.2,28.53,WNW,285,5.8,15.4,20,0.00,,,0.00,VWS V14.00,2013-01-30 04:25:00,
2013-01-29 22:27:00,56.7,16.1,28.53,WNW,288,12.8,15.4,20,0.00,,,0.00,VWS V14.00,2013-01-30 04:27:00,
2013-01-29 22:31:00,56.8,16.2,28.53,NW,317,5.8,15.9,20,0.00,,,0.00,VWS V14.00,2013-01-30 04:31:00,
2013-01-29 22:33:00,56.7,16.1,28.50,NW,315,10.5,13.2,20,0.00,,,0.00,VWS V14.00,2013-01-30 04:33:00,
2013-01-29 22:36:00,56.8,16.2,28.50,West,272,7.6,22.8,20,0.00,,,0.00,VWS V14.00,2013-01-30 04:36:00,
2013-01-29 22:38:00,56.8,16.2,28.50,NW,305,16.8,22.8,20,0.00,,,0.00,VWS V14.00,2013-01-30 04:38:00,
2013-01-29 22:39:00,56.5,15.9,28.50,West,279,15.0,22.8,20,0.00,,,0.00,VWS V14.00,2013-01-30 04:39:00,
2013-01-29 22:41:00,56.5,15.9,28.50,WSW,253,9.2,22.8,20,0.00,,,0.00,VWS V14.00,2013-01-30 04:41:00,
2013-01-29 22:42:00,56.3,15.8,28.50,North,357,10.1,22.8,20,0.00,,,0.00,VWS V14.00,2013-01-30 04:42:00,
2013-01-29 22:43:00,56.3,15.8,28.50,West,279,12.8,22.8,20,0.00,,,0.00,VWS V14.00,2013-01-30 04:43:00,
2013-01-29 22:44:00,56.3,15.8,28.50,WNW,303,11.0,22.8,20,0.00,,,0.00,VWS V14.00,2013-01-30 04:44:00,
2013-01-29 22:47:00,56.1,15.6,28.50,NW,312,8.3,14.5,20,0.00,,,0.00,VWS V14.00,2013-01-30 04:47:00,
2013-01-29 22:48:00,55.9,15.5,28.50,WNW,299,10.5,14.5,20,0.00,,,0.00,VWS V14.00,2013-01-30 04:48:00,
2013-01-29 22:49:00,55.9,15.5,28.50,WNW,299,10.5,14.5,20,0.00,,,0.00,VWS V14.00,2013-01-30 04:49:00,
2013-01-29 22:50:00,56.1,15.6,28.50,WNW,287,7.6,14.5,20,0.00,,,0.00,VWS V14.00,2013-01-30 04:50:00,
2013-01-29 22:52:00,56.1,15.6,28.50,WNW,296,8.7,18.8,20,0.00,,,0.00,VWS V14.00,2013-01-30 04:52:00,
2013-01-29 22:54:00,55.9,15.5,28.50,WNW,286,8.7,18.8,20,0.00,,,0.00,VWS V14.00,2013-01-30 04:54:00,
2013-01-29 22:56:00,56.3,15.8,28.50,NW,312,14.5,18.8,20,0.00,,,0.00,VWS V14.00,2013-01-30 04:56:00,
2013-01-29 22:57:00,55.9,15.5,28.50,NW,312,8.1,18.8,20,0.00,,,0.00,VWS V14.00,2013-01-30 04:57:00,
2013-01-29 22:59:00,55.6,15.2,28.50,WNW,286,5.8,18.8,20,0.00,,,0.00,VWS V14.00,2013-01-30 04:59:00,
2013-01-29 23:00:00,55.4,15.0,28.50,WNW,285,7.2,18.8,20,0.00,,,0.00,VWS V14.00,2013-01-30 05:00:00,
2013-01-29 23:01:00,55.4,15.0,28.50,WNW,285,7.2,18.8,20,0.00,,,0.00,VWS V14.00,2013-01-30 05:01:00,
2013-01-29 23:03:00,55.6,15.2,28.53,WNW,292,6.3,18.8,20,0.00,,,0.00,VWS V14.00,2013-01-30 05:03:00,
2013-01-29 23:04:00,55.6,15.2,28.53,WNW,302,11.0,18.8,20,0.00,,,0.00,VWS V14.00,2013-01-30 05:04:00,
2013-01-29 23:06:00,55.8,15.3,28.53,NW,307,11.0,18.8,20,0.00,,,0.00,VWS V14.00,2013-01-30 05:06:00,
2013-01-29 23:08:00,55.6,15.2,28.53,WNW,288,13.2,18.8,20,0.00,,,0.00,VWS V14.00,2013-01-30 05:08:00,
2013-01-29 23:10:00,55.9,15.5,28.53,NW,304,7.6,18.8,20,0.00,,,0.00,VWS V14.00,2013-01-30 05:10:00,
2013-01-29 23:12:00,55.6,15.2,28.53,NW,306,8.7,18.8,20,0.00,,,0.00,VWS V14.00,2013-01-30 05:12:00,
2013-01-29 23:13:00,55.4,15.0,28.53,WNW,295,11.0,18.8,20,0.00,,,0.00,VWS V14.00,2013-01-30 05:13:00,
2013-01-29 23:15:00,55.4,15.0,28.53,WNW,303,10.1,18.8,20,0.00,,,0.00,VWS V14.00,2013-01-30 05:15:00,
2013-01-29 23:17:00,55.2,16.0,28.53,WNW,292,6.3,15.9,21,0.00,,,0.00,VWS V14.00,2013-01-30 05:17:00,
2013-01-29 23:18:00,55.2,16.0,28.53,WNW,285,6.3,15.9,21,0.00,,,0.00,VWS V14.00,2013-01-30 05:18:00,
2013-01-29 23:20:00,55.0,15.8,28.53,NW,314,10.1,15.9,21,0.00,,,0.00,VWS V14.00,2013-01-30 05:20:00,
2013-01-29 23:21:00,55.0,15.8,28.53,NW,314,10.1,15.9,21,0.00,,,0.00,VWS V14.00,2013-01-30 05:21:00,
2013-01-29 23:22:00,55.0,15.8,28.53,NW,309,5.8,15.9,21,0.00,,,0.00,VWS V14.00,2013-01-30 05:22:00,
2013-01-29 23:24:00,55.0,15.8,28.53,WNW,290,14.1,15.9,21,0.00,,,0.00,VWS V14.00,2013-01-30 05:24:00,
2013-01-29 23:26:00,54.7,15.5,28.53,NW,309,6.3,15.9,21,0.00,,,0.00,VWS V14.00,2013-01-30 05:26:00,
2013-01-29 23:28:00,54.7,15.5,28.53,WNW,297,5.8,15.9,21,0.00,,,0.00,VWS V14.00,2013-01-30 05:28:00,
2013-01-29 23:29:00,54.7,15.5,28.53,WNW,295,10.5,15.9,21,0.00,,,0.00,VWS V14.00,2013-01-30 05:29:00,
2013-01-29 23:31:00,54.7,15.5,28.53,WNW,297,10.1,15.9,21,0.00,,,0.00,VWS V14.00,2013-01-30 05:31:00,
2013-01-29 23:32:00,54.5,15.4,28.53,WNW,286,4.0,10.5,21,0.00,,,0.00,VWS V14.00,2013-01-30 05:32:00,
2013-01-29 23:33:00,54.5,15.4,28.53,WNW,286,4.0,10.5,21,0.00,,,0.00,VWS V14.00,2013-01-30 05:33:00,
2013-01-29 23:36:00,54.3,15.2,28.53,NW,320,13.2,13.2,21,0.00,,,0.00,VWS V14.00,2013-01-30 05:36:00,
2013-01-29 23:38:00,54.5,15.4,28.53,WNW,289,6.3,13.2,21,0.00,,,0.00,VWS V14.00,2013-01-30 05:38:00,
2013-01-29 23:42:00,54.7,15.5,28.53,WNW,288,4.9,15.9,21,0.00,,,0.00,VWS V14.00,2013-01-30 05:42:00,
2013-01-29 23:43:00,54.7,15.5,28.53,West,277,8.7,15.9,21,0.00,,,0.00,VWS V14.00,2013-01-30 05:43:00,
2013-01-29 23:47:00,54.5,15.4,28.53,WNW,292,7.6,7.6,21,0.00,,,0.00,VWS V14.00,2013-01-30 05:47:00,
2013-01-29 23:48:00,54.3,15.2,28.53,NNW,332,7.6,8.1,21,0.00,,,0.00,VWS V14.00,2013-01-30 05:48:00,
2013-01-29 23:49:00,54.3,15.2,28.53,NNW,332,7.6,8.1,21,0.00,,,0.00,VWS V14.00,2013-01-30 05:49:00,
2013-01-29 23:52:00,54.5,15.4,28.53,NW,317,8.1,13.2,21,0.00,,,0.00,VWS V14.00,2013-01-30 05:52:00,
2013-01-29 23:54:00,54.3,15.2,28.53,NW,309,6.3,13.2,21,0.00,,,0.00,VWS V14.00,2013-01-30 05:54:00,
2013-01-29 23:55:00,54.3,15.2,28.53,NW,309,6.3,13.2,21,0.00,,,0.00,VWS V14.00,2013-01-30 05:55:00,
2013-01-29 23:57:00,54.3,15.2,28.53,WNW,283,10.5,14.5,21,0.00,,,0.00,VWS V14.00,2013-01-30 05:57:00,
2013-01-29 23:59:00,54.3,15.2,28.53,NW,311,7.6,14.5,21,0.00,,,0.00,VWS V14.00,2013-01-30 05:59:00,